1000 dernières valeurs brutes
Date Temp Humidity Gust Pressure Rain
07 mai 09:34 12.1°C 92% 3.7 km/h OSO 1014.6 hPa 0 mm
07 mai 09:33 12.1°C 92% 2.6 km/h OSO 1014.6 hPa 0 mm
07 mai 09:32 12.0°C 92% 3.7 km/h SO 1014.6 hPa 0 mm
07 mai 09:31 12.0°C 92% 3.7 km/h SE 1014.6 hPa 0 mm
07 mai 09:30 12.1°C 93% 3.7 km/h SSO 1014.5 hPa 0 mm
07 mai 09:29 12.0°C 93% 4.8 km/h SSO 1014.5 hPa 0 mm
07 mai 09:28 11.9°C 93% 7.4 km/h SSO 1014.5 hPa 0 mm
07 mai 09:27 11.8°C 93% 2.1 km/h SE 1014.5 hPa 0 mm
07 mai 09:26 11.8°C 93% 2.6 km/h SO 1014.5 hPa 0 mm
07 mai 09:25 11.6°C 93% 2.6 km/h SO 1014.4 hPa 0 mm
07 mai 09:24 11.6°C 94% 2.6 km/h OSO 1014.4 hPa 0 mm
07 mai 09:23 11.6°C 94% 2.6 km/h SO 1014.4 hPa 0 mm
07 mai 09:22 11.5°C 93% 2.6 km/h SO 1014.4 hPa 0 mm
07 mai 09:21 11.5°C 94% 2.6 km/h OSO 1014.4 hPa 0 mm
07 mai 09:20 11.3°C 94% 1.6 km/h OSO 1014.4 hPa 0 mm
07 mai 09:19 11.2°C 94% 4.2 km/h SSO 1014.4 hPa 0 mm
07 mai 09:18 11.2°C 94% 3.2 km/h OSO 1014.3 hPa 0 mm
07 mai 09:17 11.2°C 94% 1.1 km/h S 1014.3 hPa 0 mm
07 mai 09:16 11.1°C 94% 2.1 km/h SSO 1014.3 hPa 0 mm
07 mai 09:15 11.1°C 94% 2.1 km/h S 1014.3 hPa 0 mm
07 mai 09:14 11.0°C 95% 0.5 km/h NE 1014.3 hPa 0 mm
07 mai 09:13 10.9°C 95% 1.6 km/h NNE 1014.3 hPa 0 mm
07 mai 09:12 10.8°C 95% 2.1 km/h NNE 1014.3 hPa 0 mm
07 mai 09:11 10.7°C 95% 1.6 km/h ENE 1014.2 hPa 0 mm
07 mai 09:10 10.6°C 95% 2.1 km/h N 1014.2 hPa 0 mm
07 mai 09:09 10.6°C 95% 1.1 km/h NE 1014.2 hPa 0 mm
07 mai 09:08 10.5°C 95% 1.6 km/h NE 1014.2 hPa 0 mm
07 mai 09:07 10.6°C 95% 2.1 km/h NNE 1014.2 hPa 0 mm
07 mai 09:06 10.6°C 95% 2.6 km/h NNE 1014.2 hPa 0 mm
07 mai 09:05 10.5°C 95% 2.1 km/h NNE 1014.2 hPa 0 mm
07 mai 09:04 10.6°C 95% 1.6 km/h NE 1014.2 hPa 0 mm
07 mai 09:03 10.6°C 95% 1.1 km/h NNE 1014.2 hPa 0 mm
07 mai 09:02 10.5°C 95% 0.5 km/h E 1014.2 hPa 0 mm
07 mai 09:01 10.4°C 95% 0.0 km/h E 1014.2 hPa 0 mm
07 mai 09:00 10.4°C 95% 0.0 km/h ESE 1014.2 hPa 0 mm
07 mai 08:59 10.4°C 95% 1.6 km/h E 1014.2 hPa 0 mm
07 mai 08:58 10.3°C 95% 2.1 km/h N 1014.2 hPa 0 mm
07 mai 08:57 10.3°C 95% 1.1 km/h NNE 1014.2 hPa 0.14 mm
07 mai 08:56 10.2°C 95% 0.0 km/h ESE 1014.2 hPa 0 mm
07 mai 08:55 10.2°C 95% 1.1 km/h SE 1014.2 hPa 0 mm
07 mai 08:54 10.2°C 95% 2.6 km/h SE 1014.1 hPa 0.14 mm
07 mai 08:53 10.2°C 95% 2.6 km/h ESE 1014.1 hPa 0 mm
07 mai 08:52 10.2°C 95% 2.1 km/h SE 1014.1 hPa 0 mm
07 mai 08:51 10.2°C 95% 1.6 km/h SE 1014.2 hPa 0.14 mm
07 mai 08:50 10.2°C 95% 1.6 km/h SE 1014.3 hPa 0.14 mm
07 mai 08:49 10.3°C 95% 2.1 km/h SE 1014.2 hPa 0 mm
07 mai 08:48 10.2°C 95% 2.1 km/h SE 1014.3 hPa 0 mm
07 mai 08:47 10.2°C 95% 2.1 km/h SE 1014.2 hPa 0 mm
07 mai 08:46 10.2°C 95% 0.0 km/h E 1014.3 hPa 0 mm
07 mai 08:45 10.2°C 95% 0.0 km/h ENE 1014.4 hPa 0 mm
07 mai 08:44 10.2°C 95% 0.0 km/h NE 1014.4 hPa 0 mm
07 mai 08:43 10.2°C 95% 0.0 km/h NE 1014.4 hPa 0 mm
07 mai 08:42 10.2°C 95% 0.0 km/h NE 1014.4 hPa 0 mm
07 mai 08:41 10.2°C 95% 0.0 km/h NE 1014.3 hPa 0 mm
07 mai 08:40 10.2°C 95% 2.6 km/h NE 1014.2 hPa 0 mm
07 mai 08:39 10.2°C 95% 2.6 km/h NNE 1014.3 hPa 0 mm
07 mai 08:38 10.2°C 95% 3.2 km/h NNE 1014.3 hPa 0 mm
07 mai 08:37 10.2°C 95% 3.7 km/h NNE 1014.3 hPa 0 mm
07 mai 08:36 10.3°C 95% 2.1 km/h N 1014.3 hPa 0 mm
07 mai 08:35 10.3°C 95% 2.1 km/h NE 1014.2 hPa 0.14 mm
07 mai 08:34 10.3°C 95% 3.2 km/h NNE 1014.2 hPa 0 mm
07 mai 08:33 10.3°C 95% 1.6 km/h NNE 1014.2 hPa 0 mm
07 mai 08:32 10.2°C 94% 2.1 km/h N 1014.2 hPa 0.14 mm
07 mai 08:31 10.2°C 94% 2.6 km/h NNE 1014.2 hPa 0 mm
07 mai 08:30 10.2°C 94% 2.1 km/h NNE 1014.3 hPa 0.14 mm
07 mai 08:29 10.2°C 94% 2.6 km/h NNE 1014.3 hPa 0 mm
07 mai 08:28 10.2°C 94% 2.6 km/h N 1014.3 hPa 0 mm
07 mai 08:27 10.2°C 94% 2.1 km/h N 1014.2 hPa 0.14 mm
07 mai 08:26 10.2°C 94% 0.5 km/h E 1014.2 hPa 0 mm
07 mai 08:25 10.2°C 94% 0.0 km/h SO 1014.2 hPa 0.14 mm
07 mai 08:24 10.2°C 94% 0.0 km/h SSO 1014.1 hPa 0 mm
07 mai 08:23 10.2°C 94% 0.0 km/h SO 1014.1 hPa 0 mm
07 mai 08:22 10.2°C 94% 0.0 km/h SE 1014.1 hPa 0 mm
07 mai 08:21 10.2°C 94% 0.0 km/h ESE 1014.1 hPa 0 mm
07 mai 08:20 10.1°C 94% 0.0 km/h SE 1014.0 hPa 0 mm
07 mai 08:19 10.1°C 95% 0.0 km/h SSE 1013.9 hPa 0 mm
07 mai 08:18 10.1°C 95% 0.0 km/h SE 1013.9 hPa 0 mm
07 mai 08:17 10.2°C 95% 0.0 km/h SE 1013.9 hPa 0 mm
07 mai 08:16 10.1°C 95% 0.0 km/h ESE 1013.9 hPa 0 mm
07 mai 08:15 10.0°C 95% 0.5 km/h SSE 1013.9 hPa 0 mm
07 mai 08:14 10.1°C 95% 1.1 km/h SSE 1013.9 hPa 0 mm
07 mai 08:13 10.1°C 95% 1.1 km/h S 1013.9 hPa 0 mm
07 mai 08:12 10.1°C 95% 1.6 km/h ESE 1014.0 hPa 0 mm
07 mai 08:11 10.0°C 96% 0.5 km/h ESE 1013.9 hPa 0 mm
07 mai 08:10 10.0°C 95% 2.1 km/h ESE 1013.9 hPa 0 mm
07 mai 08:09 10.0°C 95% 1.6 km/h SE 1013.9 hPa 0 mm
07 mai 08:08 10.0°C 96% 2.1 km/h ESE 1013.8 hPa 0 mm
07 mai 08:07 9.9°C 96% 1.6 km/h SE 1013.7 hPa 0 mm
07 mai 08:06 10.0°C 96% 2.1 km/h SE 1013.7 hPa 0 mm
07 mai 08:05 9.9°C 96% 1.6 km/h SE 1013.7 hPa 0 mm
07 mai 08:04 10.0°C 96% 1.1 km/h ESE 1013.7 hPa 0 mm
07 mai 08:03 9.9°C 96% 1.1 km/h ESE 1013.7 hPa 0 mm
07 mai 08:02 9.9°C 96% 1.1 km/h ESE 1013.7 hPa 0 mm
07 mai 08:01 9.9°C 96% 1.6 km/h E 1013.7 hPa 0 mm
07 mai 08:00 9.8°C 96% 1.1 km/h ESE 1013.8 hPa 0 mm
07 mai 07:59 9.9°C 95% 1.6 km/h SE 1013.7 hPa 0 mm
07 mai 07:58 9.9°C 96% 1.1 km/h ESE 1013.8 hPa 0 mm
07 mai 07:57 9.9°C 96% 1.6 km/h ESE 1013.8 hPa 0.14 mm
07 mai 07:56 9.8°C 95% 1.1 km/h SE 1013.7 hPa 0 mm
07 mai 07:55 9.8°C 95% 1.6 km/h SE 1013.7 hPa 0 mm
07 mai 07:54 9.9°C 95% 2.1 km/h ESE 1013.7 hPa 0 mm
07 mai 07:53 9.9°C 96% 2.1 km/h SE 1013.7 hPa 0 mm
07 mai 07:52 9.8°C 95% 2.1 km/h ESE 1013.6 hPa 0.14 mm
07 mai 07:51 9.8°C 95% 0.5 km/h SE 1013.7 hPa 0 mm
07 mai 07:50 9.8°C 95% 0.0 km/h SE 1013.7 hPa 0 mm
07 mai 07:49 9.8°C 95% 0.0 km/h SE 1013.7 hPa 0 mm
07 mai 07:48 9.8°C 95% 0.0 km/h SE 1013.6 hPa 0 mm
07 mai 07:47 9.7°C 95% 0.5 km/h SE 1013.6 hPa 0.14 mm
07 mai 07:46 9.7°C 95% 0.5 km/h E 1013.6 hPa 0 mm
07 mai 07:45 9.7°C 95% 1.1 km/h N 1013.6 hPa 0 mm
07 mai 07:44 9.7°C 95% 1.1 km/h ENE 1013.6 hPa 0.14 mm
07 mai 07:43 9.7°C 95% 2.1 km/h E 1013.6 hPa 0 mm
07 mai 07:42 9.7°C 95% 1.6 km/h NNE 1013.6 hPa 0 mm
07 mai 07:41 9.7°C 94% 3.2 km/h NE 1013.6 hPa 0 mm
07 mai 07:40 9.7°C 94% 3.7 km/h NNE 1013.6 hPa 0 mm
07 mai 07:39 9.7°C 94% 4.2 km/h E 1013.7 hPa 0 mm
07 mai 07:38 9.7°C 94% 4.8 km/h SE 1013.6 hPa 0 mm
07 mai 07:37 9.7°C 94% 5.3 km/h NE 1013.6 hPa 0 mm
07 mai 07:36 9.7°C 93% 4.2 km/h ENE 1013.6 hPa 0 mm
07 mai 07:35 9.7°C 93% 4.8 km/h NNE 1013.5 hPa 0 mm
07 mai 07:34 9.7°C 93% 5.8 km/h ENE 1013.5 hPa 0 mm
07 mai 07:33 9.7°C 93% 2.6 km/h S 1013.4 hPa 0 mm
07 mai 07:32 9.8°C 93% 1.6 km/h E 1013.3 hPa 0 mm
07 mai 07:31 9.8°C 93% 1.6 km/h ENE 1013.2 hPa 0 mm
07 mai 07:30 9.8°C 93% 2.6 km/h NE 1013.3 hPa 0 mm
07 mai 07:29 9.8°C 92% 2.1 km/h NE 1013.2 hPa 0 mm
07 mai 07:28 9.8°C 92% 3.7 km/h NE 1013.2 hPa 0 mm
07 mai 07:27 9.8°C 92% 3.7 km/h NE 1013.1 hPa 0.14 mm
07 mai 07:26 9.8°C 92% 3.2 km/h NE 1013.1 hPa 0 mm
07 mai 07:25 9.8°C 92% 3.7 km/h NNE 1013.1 hPa 0 mm
07 mai 07:24 9.8°C 92% 4.8 km/h NNE 1013.1 hPa 0.14 mm
07 mai 07:23 9.9°C 91% 5.3 km/h NNE 1013.1 hPa 0 mm
07 mai 07:22 9.9°C 91% 4.2 km/h NE 1013.0 hPa 0 mm
07 mai 07:21 10.1°C 91% 4.8 km/h NNE 1012.9 hPa 0 mm
07 mai 07:20 10.2°C 90% 4.8 km/h NE 1012.8 hPa 0 mm
07 mai 07:19 10.2°C 89% 1.6 km/h SSE 1012.8 hPa 0 mm
07 mai 07:18 10.2°C 89% 0.5 km/h SSE 1012.9 hPa 0 mm
07 mai 07:17 10.2°C 90% 2.1 km/h SE 1012.8 hPa 0 mm
07 mai 07:16 10.2°C 89% 1.6 km/h E 1012.8 hPa 0 mm
07 mai 07:15 10.2°C 89% 2.6 km/h ESE 1012.9 hPa 0 mm
07 mai 07:14 10.3°C 89% 4.2 km/h SSE 1012.9 hPa 0 mm
07 mai 07:13 10.3°C 89% 4.2 km/h SSE 1012.8 hPa 0 mm
07 mai 07:12 10.2°C 89% 4.2 km/h ESE 1012.7 hPa 0 mm
07 mai 07:11 10.2°C 90% 4.2 km/h ESE 1012.7 hPa 0 mm
07 mai 07:10 10.2°C 90% 4.2 km/h SE 1012.7 hPa 0 mm
07 mai 07:09 10.2°C 90% 4.8 km/h SE 1012.7 hPa 0 mm
07 mai 07:08 10.1°C 91% 4.2 km/h SE 1012.7 hPa 0 mm
07 mai 07:07 10.0°C 91% 4.2 km/h SE 1012.7 hPa 0 mm
07 mai 07:06 9.9°C 92% 3.7 km/h ESE 1012.8 hPa 0 mm
07 mai 07:05 9.9°C 93% 3.7 km/h SE 1012.8 hPa 0.14 mm
07 mai 07:04 9.8°C 93% 4.8 km/h SE 1012.8 hPa 0 mm
07 mai 07:03 9.8°C 93% 4.8 km/h SE 1012.7 hPa 0 mm
07 mai 07:02 9.7°C 94% 4.2 km/h SE 1012.7 hPa 0 mm
07 mai 07:01 9.6°C 94% 4.8 km/h SSE 1012.7 hPa 0 mm
07 mai 07:00 9.5°C 94% 4.8 km/h SSE 1012.7 hPa 0 mm
07 mai 06:59 9.5°C 94% 4.2 km/h SE 1012.7 hPa 0 mm
07 mai 06:58 9.5°C 94% 3.2 km/h SE 1012.7 hPa 0 mm
07 mai 06:57 9.5°C 95% 2.6 km/h SE 1012.6 hPa 0 mm
07 mai 06:56 9.5°C 95% 1.6 km/h SE 1012.7 hPa 0 mm
07 mai 06:55 9.4°C 95% 1.1 km/h ESE 1012.7 hPa 0 mm
07 mai 06:54 9.3°C 95% 1.1 km/h ENE 1012.7 hPa 0 mm
07 mai 06:53 9.3°C 95% 0.5 km/h E 1012.7 hPa 0 mm
07 mai 06:52 9.3°C 95% 0.0 km/h E 1012.7 hPa 0 mm
07 mai 06:51 9.3°C 95% 0.0 km/h E 1012.8 hPa 0 mm
07 mai 06:50 9.3°C 95% 0.5 km/h ENE 1012.7 hPa 0 mm
07 mai 06:49 9.3°C 95% 1.6 km/h NE 1012.7 hPa 0 mm
07 mai 06:48 9.4°C 95% 0.5 km/h NNE 1012.7 hPa 0 mm
07 mai 06:47 9.4°C 95% 1.1 km/h N 1012.7 hPa 0 mm
07 mai 06:46 9.4°C 95% 1.6 km/h N 1012.6 hPa 0 mm
07 mai 06:45 9.4°C 95% 1.6 km/h N 1012.7 hPa 0 mm
07 mai 06:44 9.4°C 95% 0.0 km/h N 1012.6 hPa 0 mm
07 mai 06:43 9.3°C 95% 0.0 km/h N 1012.7 hPa 0 mm
07 mai 06:42 9.3°C 95% 0.0 km/h NNE 1012.6 hPa 0 mm
07 mai 06:41 9.3°C 95% 1.6 km/h SE 1012.6 hPa 0 mm
07 mai 06:40 9.3°C 95% 2.1 km/h SE 1012.5 hPa 0 mm
07 mai 06:39 9.3°C 95% 1.1 km/h SE 1012.4 hPa 0 mm
07 mai 06:38 9.3°C 95% 1.6 km/h ESE 1012.4 hPa 0 mm
07 mai 06:37 9.2°C 95% 1.6 km/h SE 1012.4 hPa 0 mm
07 mai 06:36 9.2°C 95% 1.6 km/h ESE 1012.4 hPa 0 mm
07 mai 06:35 9.3°C 95% 1.1 km/h SE 1012.5 hPa 0 mm
07 mai 06:34 9.3°C 95% 1.1 km/h SE 1012.5 hPa 0 mm
07 mai 06:33 9.3°C 95% 0.5 km/h ESE 1012.5 hPa 0 mm
07 mai 06:32 9.2°C 94% 1.1 km/h ESE 1012.5 hPa 0 mm
07 mai 06:31 9.2°C 94% 0.5 km/h E 1012.4 hPa 0 mm
07 mai 06:30 9.2°C 94% 0.0 km/h E 1012.4 hPa 0 mm
07 mai 06:29 9.2°C 94% 0.0 km/h E 1012.4 hPa 0 mm
07 mai 06:28 9.2°C 94% 0.0 km/h E 1012.3 hPa 0 mm
07 mai 06:27 9.2°C 94% 0.0 km/h E 1012.4 hPa 0 mm
07 mai 06:26 9.3°C 94% 0.0 km/h SE 1012.4 hPa 0 mm
07 mai 06:25 9.2°C 94% 0.0 km/h SE 1012.3 hPa 0 mm
07 mai 06:24 9.3°C 94% 0.0 km/h ESE 1012.4 hPa 0 mm
07 mai 06:23 9.3°C 94% 0.0 km/h SSE 1012.3 hPa 0 mm
07 mai 06:22 9.3°C 94% 1.1 km/h SE 1012.2 hPa 0 mm
07 mai 06:21 9.3°C 94% 1.1 km/h SE 1012.3 hPa 0 mm
07 mai 06:20 9.3°C 94% 1.6 km/h SSE 1012.3 hPa 0 mm
07 mai 06:19 9.3°C 94% 2.1 km/h SSE 1012.2 hPa 0 mm
07 mai 06:18 9.4°C 94% 2.1 km/h SE 1012.2 hPa 0 mm
07 mai 06:17 9.4°C 93% 2.1 km/h SSE 1012.2 hPa 0 mm
07 mai 06:16 9.4°C 93% 2.1 km/h SE 1012.2 hPa 0 mm
07 mai 06:15 9.4°C 93% 2.1 km/h SE 1012.2 hPa 0 mm
07 mai 06:14 9.4°C 93% 2.6 km/h ESE 1012.2 hPa 0 mm
07 mai 06:13 9.5°C 93% 3.2 km/h SSE 1012.1 hPa 0 mm
07 mai 06:12 9.5°C 92% 3.2 km/h SE 1012.2 hPa 0 mm
07 mai 06:11 9.6°C 92% 3.7 km/h SSE 1012.2 hPa 0 mm
07 mai 06:10 9.6°C 92% 3.2 km/h E 1012.1 hPa 0 mm
07 mai 06:09 9.6°C 92% 2.6 km/h E 1012.1 hPa 0 mm
07 mai 06:08 9.6°C 92% 0.5 km/h ESE 1012.1 hPa 0 mm
07 mai 06:07 9.7°C 92% 0.0 km/h ESE 1012.1 hPa 0 mm
07 mai 06:06 9.7°C 92% 0.0 km/h SE 1012.1 hPa 0 mm
07 mai 06:05 9.7°C 91% 0.5 km/h ESE 1012.1 hPa 0 mm
07 mai 06:04 9.7°C 91% 1.1 km/h ESE 1012.1 hPa 0 mm
07 mai 06:03 9.7°C 91% 2.1 km/h ESE 1012.1 hPa 0 mm
07 mai 06:02 9.8°C 91% 2.1 km/h ESE 1012.1 hPa 0 mm
07 mai 06:01 9.8°C 91% 1.6 km/h E 1012.1 hPa 0 mm
07 mai 06:00 9.8°C 91% 0.0 km/h ENE 1012.1 hPa 0 mm
07 mai 05:59 9.8°C 91% 0.0 km/h E 1012.1 hPa 0 mm
07 mai 05:58 9.8°C 90% 1.1 km/h E 1012.1 hPa 0 mm
07 mai 05:57 9.8°C 90% 1.1 km/h ENE 1012.1 hPa 0 mm
07 mai 05:56 9.9°C 90% 1.6 km/h ENE 1012.1 hPa 0 mm
07 mai 05:55 9.9°C 90% 1.6 km/h ENE 1012.1 hPa 0 mm
07 mai 05:54 9.9°C 90% 2.1 km/h NE 1012.1 hPa 0 mm
07 mai 05:53 9.9°C 90% 2.6 km/h NE 1012.0 hPa 0 mm
07 mai 05:52 10.0°C 89% 2.1 km/h NE 1012.0 hPa 0 mm
07 mai 05:51 10.0°C 89% 1.1 km/h ESE 1012.0 hPa 0 mm
07 mai 05:50 9.9°C 90% 1.1 km/h SE 1012.0 hPa 0 mm
07 mai 05:49 9.8°C 90% 1.6 km/h ESE 1012.0 hPa 0 mm
07 mai 05:48 9.7°C 91% 2.1 km/h SE 1012.0 hPa 0 mm
07 mai 05:47 9.7°C 91% 3.2 km/h ESE 1012.1 hPa 0 mm
07 mai 05:46 9.6°C 91% 4.2 km/h SSE 1012.1 hPa 0 mm
07 mai 05:45 9.6°C 91% 4.2 km/h SSO 1012.1 hPa 0 mm
07 mai 05:44 9.7°C 91% 3.7 km/h SSE 1012.1 hPa 0 mm
07 mai 05:43 9.7°C 91% 3.7 km/h SSE 1012.1 hPa 0 mm
07 mai 05:42 9.9°C 90% 4.8 km/h SSO 1012.1 hPa 0 mm
07 mai 05:41 9.9°C 89% 4.8 km/h S 1012.2 hPa 0 mm
07 mai 05:40 10.1°C 89% 3.2 km/h S 1012.1 hPa 0 mm
07 mai 05:39 10.2°C 88% 3.7 km/h S 1012.1 hPa 0 mm
07 mai 05:38 10.2°C 88% 2.6 km/h SSO 1012.1 hPa 0 mm
07 mai 05:37 10.2°C 88% 3.2 km/h S 1012.1 hPa 0 mm
07 mai 05:36 10.3°C 87% 3.7 km/h SO 1012.1 hPa 0 mm
07 mai 05:35 10.4°C 87% 4.2 km/h SSE 1012.1 hPa 0 mm
07 mai 05:34 10.3°C 87% 3.2 km/h SSE 1012.1 hPa 0 mm
07 mai 05:33 10.3°C 87% 4.8 km/h SO 1012.1 hPa 0 mm
07 mai 05:32 10.4°C 87% 5.3 km/h S 1012.0 hPa 0 mm
07 mai 05:31 10.3°C 87% 5.3 km/h S 1012.1 hPa 0 mm
07 mai 05:30 10.3°C 88% 4.2 km/h SE 1012.1 hPa 0 mm
07 mai 05:29 10.3°C 88% 5.8 km/h S 1012.1 hPa 0 mm
07 mai 05:28 10.2°C 88% 9.0 km/h SSE 1012.1 hPa 0 mm
07 mai 05:27 10.1°C 89% 9.5 km/h S 1012.1 hPa 0 mm
07 mai 05:26 10.1°C 89% 7.4 km/h SSE 1012.1 hPa 0 mm
07 mai 05:25 10.1°C 89% 11.1 km/h S 1012.2 hPa 0 mm
07 mai 05:24 10.1°C 88% 9.5 km/h SSE 1012.2 hPa 0 mm
07 mai 05:23 10.1°C 89% 8.4 km/h S 1012.2 hPa 0 mm
07 mai 05:22 10.1°C 88% 11.6 km/h S 1012.3 hPa 0 mm
07 mai 05:21 10.2°C 88% 9.5 km/h SO 1012.2 hPa 0 mm
07 mai 05:20 10.2°C 88% 7.9 km/h S 1012.2 hPa 0 mm
07 mai 05:19 10.2°C 88% 9.5 km/h SSO 1012.2 hPa 0 mm
07 mai 05:18 10.2°C 88% 7.4 km/h SSO 1012.2 hPa 0 mm
07 mai 05:17 10.2°C 88% 7.9 km/h S 1012.2 hPa 0 mm
07 mai 05:16 10.3°C 88% 8.4 km/h SSE 1012.2 hPa 0 mm
07 mai 05:15 10.3°C 88% 9.0 km/h SSO 1012.2 hPa 0 mm
07 mai 05:14 10.3°C 87% 10.0 km/h S 1012.2 hPa 0 mm
07 mai 05:13 10.4°C 87% 7.4 km/h SO 1012.2 hPa 0 mm
07 mai 05:12 10.4°C 87% 7.9 km/h SSO 1012.2 hPa 0 mm
07 mai 05:11 10.4°C 87% 9.5 km/h SSO 1012.3 hPa 0 mm
07 mai 05:10 10.4°C 87% 9.0 km/h S 1012.2 hPa 0 mm
07 mai 05:09 10.5°C 87% 10.0 km/h S 1012.2 hPa 0 mm
07 mai 05:08 10.5°C 87% 9.5 km/h S 1012.1 hPa 0 mm
07 mai 05:07 10.5°C 87% 10.0 km/h S 1012.1 hPa 0 mm
07 mai 05:06 10.4°C 87% 11.1 km/h SO 1012.1 hPa 0 mm
07 mai 05:05 10.5°C 87% 10.0 km/h SSE 1012.1 hPa 0 mm
07 mai 05:04 10.5°C 87% 10.6 km/h S 1012.2 hPa 0 mm
07 mai 05:03 10.5°C 87% 12.7 km/h SSE 1012.2 hPa 0 mm
07 mai 05:02 10.4°C 88% 13.7 km/h S 1012.2 hPa 0 mm
07 mai 05:01 10.5°C 88% 15.8 km/h SSE 1012.1 hPa 0 mm
07 mai 05:00 10.4°C 88% 19.5 km/h S 1012.2 hPa 0 mm
07 mai 04:59 10.4°C 89% 22.2 km/h SSO 1012.2 hPa 0 mm
07 mai 04:58 10.2°C 89% 20.6 km/h S 1012.1 hPa 0 mm
07 mai 04:57 10.2°C 89% 13.2 km/h S 1012.2 hPa 0 mm
07 mai 04:56 10.1°C 90% 11.6 km/h SSO 1012.2 hPa 0 mm
07 mai 04:55 10.1°C 90% 10.0 km/h S 1012.2 hPa 0 mm
07 mai 04:54 10.2°C 90% 8.4 km/h SSO 1012.2 hPa 0 mm
07 mai 04:53 10.2°C 90% 5.8 km/h SO 1012.2 hPa 0 mm
07 mai 04:52 10.2°C 89% 6.9 km/h SSO 1012.2 hPa 0 mm
07 mai 04:51 10.2°C 90% 6.9 km/h SE 1012.3 hPa 0 mm
07 mai 04:50 10.2°C 90% 8.4 km/h SSO 1012.3 hPa 0 mm
07 mai 04:49 10.2°C 90% 6.3 km/h SSO 1012.2 hPa 0 mm
07 mai 04:48 10.2°C 89% 3.7 km/h SSE 1012.2 hPa 0 mm
07 mai 04:47 10.2°C 89% 5.3 km/h SE 1012.2 hPa 0 mm
07 mai 04:46 10.3°C 89% 6.3 km/h SSE 1012.2 hPa 0 mm
07 mai 04:45 10.3°C 89% 11.1 km/h SO 1012.2 hPa 0 mm
07 mai 04:44 10.3°C 89% 10.0 km/h SE 1012.2 hPa 0 mm
07 mai 04:43 10.3°C 89% 8.4 km/h SSO 1012.2 hPa 0 mm
07 mai 04:42 10.3°C 89% 7.9 km/h SSO 1012.2 hPa 0 mm
07 mai 04:41 10.2°C 90% 9.0 km/h SSE 1012.2 hPa 0 mm
07 mai 04:40 10.2°C 90% 7.4 km/h S 1012.2 hPa 0 mm
07 mai 04:39 10.2°C 90% 5.3 km/h SSE 1012.2 hPa 0 mm
07 mai 04:38 10.2°C 90% 6.3 km/h S 1012.1 hPa 0 mm
07 mai 04:37 10.1°C 90% 7.4 km/h SSE 1012.1 hPa 0 mm
07 mai 04:36 10.1°C 90% 5.3 km/h S 1012.1 hPa 0 mm
07 mai 04:35 10.2°C 90% 5.8 km/h S 1012.1 hPa 0 mm
07 mai 04:34 10.2°C 90% 5.8 km/h SSE 1012.1 hPa 0 mm
07 mai 04:33 10.2°C 90% 6.3 km/h SE 1012.0 hPa 0 mm
07 mai 04:32 10.2°C 90% 8.4 km/h SSE 1012.1 hPa 0 mm
07 mai 04:31 10.2°C 90% 7.4 km/h SSE 1012.0 hPa 0 mm
07 mai 04:30 10.1°C 90% 6.3 km/h S 1012.1 hPa 0 mm
07 mai 04:29 10.1°C 90% 5.8 km/h SE 1012.1 hPa 0 mm
07 mai 04:28 10.2°C 90% 6.9 km/h SSE 1012.1 hPa 0 mm
07 mai 04:27 10.2°C 90% 8.4 km/h S 1012.1 hPa 0 mm
07 mai 04:26 10.2°C 90% 7.4 km/h SSO 1012.1 hPa 0 mm
07 mai 04:25 10.2°C 90% 5.8 km/h SSO 1012.1 hPa 0 mm
07 mai 04:24 10.3°C 90% 6.3 km/h SSO 1012.1 hPa 0 mm
07 mai 04:23 10.2°C 90% 9.5 km/h S 1012.1 hPa 0 mm
07 mai 04:22 10.2°C 90% 6.3 km/h S 1012.0 hPa 0 mm
07 mai 04:21 10.2°C 90% 11.1 km/h S 1012.0 hPa 0 mm
07 mai 04:20 10.2°C 90% 7.9 km/h SSO 1012.0 hPa 0 mm
07 mai 04:19 10.2°C 90% 7.9 km/h S 1012.0 hPa 0 mm
07 mai 04:18 10.2°C 90% 10.0 km/h SSE 1012.0 hPa 0 mm
07 mai 04:17 10.3°C 90% 9.0 km/h SSO 1012.0 hPa 0 mm
07 mai 04:16 10.3°C 90% 13.2 km/h SSE 1012.0 hPa 0 mm
07 mai 04:15 10.3°C 90% 12.1 km/h SSE 1012.0 hPa 0 mm
07 mai 04:14 10.3°C 90% 13.2 km/h SSE 1012.0 hPa 0 mm
07 mai 04:13 10.3°C 89% 10.6 km/h S 1012.0 hPa 0 mm
07 mai 04:12 10.4°C 89% 10.0 km/h S 1012.1 hPa 0 mm
07 mai 04:11 10.4°C 89% 10.0 km/h SSE 1012.0 hPa 0 mm
07 mai 04:10 10.4°C 89% 13.2 km/h E 1012.0 hPa 0 mm
07 mai 04:09 10.3°C 89% 17.4 km/h SSE 1012.1 hPa 0 mm
07 mai 04:08 10.4°C 89% 13.2 km/h SSE 1012.1 hPa 0 mm
07 mai 04:07 10.4°C 90% 11.1 km/h S 1012.1 hPa 0 mm
07 mai 04:06 10.3°C 90% 12.7 km/h S 1012.1 hPa 0 mm
07 mai 04:05 10.3°C 90% 9.0 km/h SSE 1012.2 hPa 0 mm
07 mai 04:04 10.3°C 90% 10.0 km/h SSE 1012.1 hPa 0 mm
07 mai 04:03 10.3°C 90% 11.6 km/h SSE 1012.1 hPa 0 mm
07 mai 04:02 10.3°C 90% 11.1 km/h SSE 1012.1 hPa 0 mm
07 mai 04:01 10.3°C 90% 10.0 km/h SSE 1012.1 hPa 0 mm
07 mai 04:00 10.3°C 90% 9.5 km/h SE 1012.1 hPa 0 mm
07 mai 03:59 10.3°C 90% 7.4 km/h SSE 1012.1 hPa 0 mm
07 mai 03:58 10.3°C 90% 8.4 km/h SSE 1012.2 hPa 0 mm
07 mai 03:57 10.4°C 90% 9.0 km/h ESE 1012.2 hPa 0 mm
07 mai 03:56 10.3°C 91% 9.0 km/h SSE 1012.2 hPa 0 mm
07 mai 03:55 10.3°C 91% 8.4 km/h SSE 1012.2 hPa 0 mm
07 mai 03:54 10.3°C 91% 11.1 km/h SSE 1012.2 hPa 0 mm
07 mai 03:53 10.3°C 91% 11.1 km/h ESE 1012.2 hPa 0 mm
07 mai 03:52 10.3°C 91% 11.6 km/h S 1012.2 hPa 0 mm
07 mai 03:51 10.3°C 91% 13.2 km/h SE 1012.2 hPa 0 mm
07 mai 03:50 10.4°C 91% 13.7 km/h SSE 1012.2 hPa 0 mm
07 mai 03:49 10.3°C 92% 12.1 km/h S 1012.2 hPa 0 mm
07 mai 03:48 10.3°C 92% 13.2 km/h SE 1012.3 hPa 0 mm
07 mai 03:47 10.3°C 92% 12.1 km/h SE 1012.3 hPa 0 mm
07 mai 03:46 10.3°C 92% 13.7 km/h SE 1012.3 hPa 0 mm
07 mai 03:45 10.3°C 92% 14.2 km/h SE 1012.3 hPa 0 mm
07 mai 03:44 10.3°C 92% 11.1 km/h SE 1012.3 hPa 0 mm
07 mai 03:43 10.3°C 92% 10.6 km/h SE 1012.3 hPa 0 mm
07 mai 03:42 10.3°C 92% 12.1 km/h SSE 1012.3 hPa 0 mm
07 mai 03:41 10.2°C 92% 11.6 km/h SSE 1012.3 hPa 0 mm
07 mai 03:40 10.3°C 92% 9.5 km/h SE 1012.3 hPa 0 mm
07 mai 03:39 10.2°C 92% 7.4 km/h ESE 1012.4 hPa 0 mm
07 mai 03:38 10.3°C 92% 7.4 km/h SE 1012.4 hPa 0 mm
07 mai 03:37 10.3°C 92% 7.4 km/h SSE 1012.4 hPa 0 mm
07 mai 03:36 10.3°C 92% 10.0 km/h ESE 1012.4 hPa 0 mm
07 mai 03:36 10.3°C 92% 9.0 km/h SE 1012.4 hPa 0 mm
07 mai 03:35 10.3°C 92% 8.4 km/h SSE 1012.4 hPa 0 mm
07 mai 03:34 10.3°C 92% 10.6 km/h S 1012.4 hPa 0 mm
07 mai 03:33 10.2°C 92% 9.0 km/h SE 1012.4 hPa 0 mm
07 mai 03:32 10.3°C 92% 8.4 km/h SSE 1012.4 hPa 0 mm
07 mai 03:31 10.3°C 92% 9.5 km/h SSE 1012.4 hPa 0 mm
07 mai 03:30 10.3°C 92% 6.9 km/h SE 1012.4 hPa 0 mm
07 mai 03:29 10.3°C 93% 7.9 km/h SE 1012.4 hPa 0 mm
07 mai 03:28 10.3°C 93% 6.3 km/h S 1012.4 hPa 0 mm
07 mai 03:27 10.3°C 93% 5.8 km/h S 1012.5 hPa 0 mm
07 mai 03:26 10.3°C 93% 7.4 km/h SSE 1012.5 hPa 0 mm
07 mai 03:25 10.3°C 92% 6.3 km/h SSE 1012.5 hPa 0 mm
07 mai 03:24 10.3°C 93% 5.8 km/h SE 1012.5 hPa 0 mm
07 mai 03:23 10.3°C 93% 6.3 km/h S 1012.5 hPa 0 mm
07 mai 03:22 10.3°C 93% 9.5 km/h S 1012.4 hPa 0 mm
07 mai 03:21 10.3°C 93% 5.8 km/h SSE 1012.4 hPa 0 mm
07 mai 03:20 10.3°C 93% 9.0 km/h SSE 1012.5 hPa 0 mm
07 mai 03:19 10.3°C 93% 6.3 km/h S 1012.5 hPa 0 mm
07 mai 03:18 10.4°C 93% 6.9 km/h SSE 1012.5 hPa 0 mm
07 mai 03:17 10.4°C 93% 6.9 km/h S 1012.5 hPa 0.14 mm
07 mai 03:16 10.4°C 92% 9.5 km/h S 1012.5 hPa 0 mm
07 mai 03:15 10.4°C 92% 5.8 km/h S 1012.5 hPa 0 mm
07 mai 03:14 10.4°C 92% 4.8 km/h SSO 1012.5 hPa 0 mm
07 mai 03:13 10.5°C 92% 4.8 km/h S 1012.5 hPa 0 mm
07 mai 03:12 10.5°C 92% 7.9 km/h S 1012.6 hPa 0 mm
07 mai 03:11 10.5°C 92% 7.4 km/h S 1012.6 hPa 0.14 mm
07 mai 03:10 10.5°C 92% 7.9 km/h SSO 1012.5 hPa 0 mm
07 mai 03:09 10.5°C 92% 9.0 km/h S 1012.5 hPa 0 mm
07 mai 03:08 10.5°C 92% 10.0 km/h SSE 1012.5 hPa 0.14 mm
07 mai 03:07 10.5°C 93% 10.0 km/h SSO 1012.5 hPa 0 mm
07 mai 03:06 10.5°C 93% 11.6 km/h S 1012.5 hPa 0 mm
07 mai 03:05 10.5°C 93% 7.4 km/h SSE 1012.5 hPa 0 mm
07 mai 03:04 10.4°C 93% 7.9 km/h SSE 1012.5 hPa 0 mm
07 mai 03:03 10.4°C 93% 10.6 km/h SSE 1012.5 hPa 0 mm
07 mai 03:02 10.3°C 93% 6.9 km/h SSO 1012.6 hPa 0 mm
07 mai 03:01 10.3°C 93% 8.4 km/h SSE 1012.6 hPa 0 mm
07 mai 03:00 10.3°C 93% 5.8 km/h SSE 1012.6 hPa 0 mm
07 mai 02:59 10.3°C 93% 8.4 km/h SSE 1012.6 hPa 0.14 mm
07 mai 02:58 10.2°C 93% 11.1 km/h SSO 1012.6 hPa 0 mm
07 mai 02:57 10.2°C 93% 13.2 km/h S 1012.6 hPa 0 mm
07 mai 02:56 10.2°C 93% 8.4 km/h SSO 1012.6 hPa 0 mm
07 mai 02:55 10.2°C 93% 5.8 km/h S 1012.6 hPa 0.14 mm
07 mai 02:54 10.2°C 93% 6.3 km/h SSO 1012.6 hPa 0 mm
07 mai 02:53 10.3°C 93% 5.3 km/h S 1012.6 hPa 0 mm
07 mai 02:52 10.3°C 93% 4.2 km/h SE 1012.6 hPa 0 mm
07 mai 02:51 10.3°C 93% 4.8 km/h SSO 1012.6 hPa 0 mm
07 mai 02:50 10.3°C 93% 4.8 km/h SSE 1012.6 hPa 0.14 mm
07 mai 02:49 10.3°C 93% 4.8 km/h SSO 1012.5 hPa 0 mm
07 mai 02:48 10.4°C 93% 4.8 km/h SO 1012.5 hPa 0 mm
07 mai 02:47 10.4°C 93% 5.3 km/h S 1012.5 hPa 0 mm
07 mai 02:46 10.4°C 93% 4.8 km/h S 1012.5 hPa 0 mm
07 mai 02:45 10.4°C 93% 6.3 km/h SSO 1012.5 hPa 0 mm
07 mai 02:44 10.3°C 93% 6.3 km/h S 1012.6 hPa 0.14 mm
07 mai 02:43 10.4°C 93% 5.3 km/h SO 1012.6 hPa 0 mm
07 mai 02:42 10.4°C 93% 5.3 km/h S 1012.5 hPa 0 mm
07 mai 02:41 10.4°C 92% 4.8 km/h SSO 1012.5 hPa 0 mm
07 mai 02:40 10.4°C 92% 4.8 km/h SSO 1012.6 hPa 0 mm
07 mai 02:39 10.4°C 92% 4.8 km/h SO 1012.6 hPa 0 mm
07 mai 02:38 10.4°C 92% 4.8 km/h SSE 1012.6 hPa 0 mm
07 mai 02:37 10.4°C 92% 4.2 km/h S 1012.6 hPa 0 mm
07 mai 02:36 10.4°C 92% 5.3 km/h SSO 1012.6 hPa 0 mm
07 mai 02:35 10.5°C 92% 5.8 km/h SSE 1012.7 hPa 0 mm
07 mai 02:34 10.5°C 92% 5.8 km/h S 1012.6 hPa 0.14 mm
07 mai 02:33 10.5°C 92% 6.3 km/h SSO 1012.7 hPa 0 mm
07 mai 02:32 10.5°C 92% 6.3 km/h SO 1012.6 hPa 0 mm
07 mai 02:31 10.5°C 92% 6.3 km/h SO 1012.6 hPa 0 mm
07 mai 02:30 10.5°C 92% 5.8 km/h SSO 1012.7 hPa 0 mm
07 mai 02:29 10.6°C 92% 5.3 km/h SSO 1012.6 hPa 0 mm
07 mai 02:28 10.6°C 92% 6.9 km/h SSO 1012.6 hPa 0 mm
07 mai 02:27 10.6°C 92% 7.4 km/h SO 1012.6 hPa 0 mm
07 mai 02:26 10.6°C 91% 7.4 km/h S 1012.6 hPa 0 mm
07 mai 02:25 10.6°C 91% 7.4 km/h SSO 1012.7 hPa 0 mm
07 mai 02:24 10.6°C 91% 6.9 km/h SSO 1012.7 hPa 0 mm
07 mai 02:23 10.6°C 91% 7.4 km/h SSO 1012.6 hPa 0 mm
07 mai 02:22 10.6°C 91% 6.9 km/h SSO 1012.6 hPa 0 mm
07 mai 02:21 10.6°C 91% 7.4 km/h SSO 1012.6 hPa 0 mm
07 mai 02:20 10.6°C 91% 6.9 km/h SSO 1012.6 hPa 0 mm
07 mai 02:19 10.6°C 91% 6.9 km/h S 1012.6 hPa 0.14 mm
07 mai 02:18 10.6°C 91% 6.9 km/h S 1012.7 hPa 0 mm
07 mai 02:17 10.7°C 91% 6.3 km/h SSO 1012.6 hPa 0 mm
07 mai 02:16 10.7°C 91% 7.4 km/h SSO 1012.6 hPa 0 mm
07 mai 02:15 10.7°C 91% 6.3 km/h S 1012.6 hPa 0 mm
07 mai 02:14 10.7°C 91% 8.4 km/h S 1012.6 hPa 0 mm
07 mai 02:13 10.6°C 91% 6.3 km/h SSO 1012.6 hPa 0 mm
07 mai 02:12 10.7°C 91% 5.8 km/h SSO 1012.6 hPa 0 mm
07 mai 02:11 10.7°C 91% 5.8 km/h S 1012.6 hPa 0.14 mm
07 mai 02:10 10.7°C 91% 6.3 km/h SSO 1012.6 hPa 0 mm
07 mai 02:09 10.7°C 91% 5.8 km/h SO 1012.6 hPa 0 mm
07 mai 02:08 10.7°C 91% 5.3 km/h SSO 1012.6 hPa 0 mm
07 mai 02:07 10.8°C 91% 5.8 km/h S 1012.6 hPa 0 mm
07 mai 02:06 10.8°C 91% 5.8 km/h SSO 1012.6 hPa 0 mm
07 mai 02:05 10.8°C 91% 6.3 km/h S 1012.6 hPa 0.14 mm
07 mai 02:04 10.8°C 91% 5.8 km/h S 1012.5 hPa 0 mm
07 mai 02:03 10.8°C 91% 6.9 km/h S 1012.5 hPa 0 mm
07 mai 02:02 10.8°C 91% 6.3 km/h S 1012.5 hPa 0 mm
07 mai 02:01 10.8°C 91% 6.3 km/h SSE 1012.5 hPa 0 mm
07 mai 02:00 10.8°C 91% 4.8 km/h SO 1012.5 hPa 0 mm
07 mai 01:59 10.8°C 90% 5.8 km/h S 1012.4 hPa 0 mm
07 mai 01:58 10.8°C 90% 7.4 km/h SSO 1012.4 hPa 0 mm
07 mai 01:57 10.8°C 90% 6.3 km/h SSO 1012.4 hPa 0 mm
07 mai 01:56 10.8°C 90% 6.3 km/h SO 1012.4 hPa 0 mm
07 mai 01:55 10.8°C 91% 10.0 km/h SSO 1012.4 hPa 0.14 mm
07 mai 01:54 10.8°C 91% 9.0 km/h SO 1012.4 hPa 0 mm
07 mai 01:53 10.8°C 91% 6.9 km/h S 1012.4 hPa 0 mm
07 mai 01:52 10.8°C 91% 7.9 km/h S 1012.4 hPa 0 mm
07 mai 01:51 10.8°C 91% 11.6 km/h S 1012.4 hPa 0 mm
07 mai 01:50 10.8°C 91% 6.3 km/h SO 1012.4 hPa 0 mm
07 mai 01:49 10.8°C 91% 5.3 km/h SSO 1012.4 hPa 0 mm
07 mai 01:48 10.8°C 91% 6.3 km/h S 1012.3 hPa 0 mm
07 mai 01:47 10.8°C 91% 6.3 km/h SO 1012.3 hPa 0 mm
07 mai 01:46 10.8°C 91% 5.8 km/h SO 1012.3 hPa 0 mm
07 mai 01:45 10.8°C 90% 6.3 km/h SSO 1012.3 hPa 0.14 mm
07 mai 01:44 10.8°C 90% 7.4 km/h SSO 1012.3 hPa 0 mm
07 mai 01:43 10.8°C 90% 8.4 km/h S 1012.3 hPa 0 mm
07 mai 01:42 10.8°C 90% 7.9 km/h S 1012.3 hPa 0 mm
07 mai 01:41 10.9°C 90% 6.3 km/h S 1012.2 hPa 0 mm
07 mai 01:40 10.8°C 90% 6.3 km/h SSO 1012.2 hPa 0 mm
07 mai 01:39 10.8°C 90% 6.9 km/h S 1012.2 hPa 0 mm
07 mai 01:38 10.8°C 90% 7.9 km/h SSO 1012.2 hPa 0 mm
07 mai 01:37 10.9°C 90% 7.4 km/h SO 1012.2 hPa 0 mm
07 mai 01:36 10.9°C 90% 6.3 km/h SSO 1012.3 hPa 0 mm
07 mai 01:35 10.9°C 90% 5.3 km/h SSO 1012.3 hPa 0.14 mm
07 mai 01:34 11.0°C 90% 6.9 km/h S 1012.2 hPa 0 mm
07 mai 01:33 11.0°C 89% 7.9 km/h SSO 1012.2 hPa 0 mm
07 mai 01:32 11.0°C 89% 9.0 km/h S 1012.2 hPa 0 mm
07 mai 01:31 11.0°C 89% 7.9 km/h SSO 1012.2 hPa 0 mm
07 mai 01:30 11.0°C 89% 7.9 km/h S 1012.2 hPa 0 mm
07 mai 01:29 11.1°C 89% 9.0 km/h SSO 1012.2 hPa 0 mm
07 mai 01:28 11.1°C 89% 7.4 km/h SO 1012.2 hPa 0 mm
07 mai 01:27 11.1°C 89% 11.1 km/h OSO 1012.3 hPa 0 mm
07 mai 01:26 11.1°C 89% 8.4 km/h S 1012.2 hPa 0 mm
07 mai 01:25 11.1°C 89% 5.8 km/h S 1012.2 hPa 0 mm
07 mai 01:24 11.1°C 89% 7.9 km/h SO 1012.2 hPa 0 mm
07 mai 01:23 11.2°C 89% 9.5 km/h OSO 1012.1 hPa 0 mm
07 mai 01:22 11.2°C 89% 6.9 km/h SO 1012.1 hPa 0 mm
07 mai 01:21 11.2°C 88% 8.4 km/h SSO 1012.2 hPa 0 mm
07 mai 01:20 11.2°C 88% 7.4 km/h S 1012.2 hPa 0 mm
07 mai 01:19 11.3°C 88% 6.3 km/h SO 1012.2 hPa 0 mm
07 mai 01:18 11.3°C 88% 10.6 km/h S 1012.1 hPa 0 mm
07 mai 01:17 11.3°C 88% 10.6 km/h SSO 1012.2 hPa 0 mm
07 mai 01:16 11.3°C 88% 7.9 km/h SO 1012.3 hPa 0 mm
07 mai 01:15 11.3°C 88% 7.4 km/h SSO 1012.2 hPa 0 mm
07 mai 01:14 11.4°C 88% 7.4 km/h S 1012.2 hPa 0 mm
07 mai 01:13 11.4°C 87% 9.5 km/h SSO 1012.1 hPa 0 mm
07 mai 01:12 11.5°C 87% 10.0 km/h SSO 1012.2 hPa 0 mm
07 mai 01:11 11.5°C 87% 10.0 km/h SSO 1012.1 hPa 0 mm
07 mai 01:10 11.6°C 87% 8.4 km/h SSO 1012.1 hPa 0 mm
07 mai 01:09 11.6°C 87% 13.7 km/h S 1012.1 hPa 0 mm
07 mai 01:08 11.6°C 87% 8.4 km/h SO 1012.1 hPa 0 mm
07 mai 01:07 11.5°C 87% 6.9 km/h S 1012.1 hPa 0 mm
07 mai 01:06 11.5°C 87% 7.9 km/h SSO 1012.1 hPa 0 mm
07 mai 01:05 11.4°C 87% 9.0 km/h SSO 1012.1 hPa 0 mm
07 mai 01:04 11.4°C 87% 12.1 km/h SSO 1012.1 hPa 0 mm
07 mai 01:03 11.4°C 87% 10.6 km/h S 1012.1 hPa 0 mm
07 mai 01:02 11.5°C 87% 10.0 km/h S 1012.2 hPa 0 mm
07 mai 01:01 11.5°C 87% 11.1 km/h SSO 1012.2 hPa 0 mm
07 mai 01:00 11.5°C 87% 9.0 km/h SO 1012.2 hPa 0 mm
07 mai 00:59 11.5°C 87% 10.6 km/h SSO 1012.1 hPa 0 mm
07 mai 00:58 11.6°C 87% 7.9 km/h S 1012.1 hPa 0 mm
07 mai 00:57 11.7°C 87% 6.9 km/h SSE 1012.1 hPa 0 mm
07 mai 00:56 11.6°C 87% 9.0 km/h SSO 1012.1 hPa 0 mm
07 mai 00:55 11.6°C 87% 9.5 km/h SSO 1012.1 hPa 0 mm
07 mai 00:54 11.7°C 87% 7.9 km/h S 1012.1 hPa 0 mm
07 mai 00:53 11.7°C 87% 10.0 km/h SSO 1012.0 hPa 0 mm
07 mai 00:52 11.6°C 87% 12.1 km/h S 1012.0 hPa 0 mm
07 mai 00:51 11.6°C 87% 8.4 km/h S 1012.1 hPa 0 mm
07 mai 00:50 11.5°C 88% 7.4 km/h SO 1012.1 hPa 0 mm
07 mai 00:49 11.5°C 87% 7.9 km/h S 1012.1 hPa 0 mm
07 mai 00:48 11.4°C 88% 9.0 km/h S 1012.2 hPa 0 mm
07 mai 00:47 11.3°C 88% 6.9 km/h S 1012.1 hPa 0 mm
07 mai 00:46 11.3°C 88% 7.4 km/h SSO 1012.1 hPa 0 mm
07 mai 00:45 11.4°C 88% 6.3 km/h S 1012.1 hPa 0 mm
07 mai 00:44 11.4°C 88% 6.9 km/h S 1012.0 hPa 0 mm
07 mai 00:43 11.4°C 88% 6.9 km/h S 1012.0 hPa 0 mm
07 mai 00:42 11.4°C 88% 10.0 km/h SSO 1012.0 hPa 0 mm
07 mai 00:41 11.3°C 88% 10.0 km/h S 1012.0 hPa 0 mm
07 mai 00:40 11.3°C 88% 8.4 km/h SSE 1012.0 hPa 0 mm
07 mai 00:39 11.3°C 88% 7.4 km/h SSE 1012.0 hPa 0 mm
07 mai 00:38 11.3°C 88% 7.4 km/h SSE 1012.1 hPa 0 mm
07 mai 00:37 11.3°C 88% 8.4 km/h S 1012.0 hPa 0 mm
07 mai 00:36 11.3°C 88% 5.3 km/h S 1012.0 hPa 0 mm
07 mai 00:35 11.3°C 88% 6.9 km/h S 1012.0 hPa 0 mm
07 mai 00:34 11.3°C 88% 6.9 km/h S 1012.0 hPa 0 mm
07 mai 00:33 11.3°C 88% 6.3 km/h S 1011.9 hPa 0 mm
07 mai 00:32 11.3°C 88% 4.8 km/h SE 1012.0 hPa 0 mm
07 mai 00:31 11.5°C 87% 5.8 km/h S 1012.0 hPa 0 mm
07 mai 00:30 11.6°C 87% 4.8 km/h S 1012.0 hPa 0 mm
07 mai 00:29 11.7°C 86% 5.3 km/h S 1012.0 hPa 0 mm
07 mai 00:28 11.7°C 86% 5.3 km/h S 1011.9 hPa 0 mm
07 mai 00:27 11.7°C 86% 4.8 km/h SSE 1011.9 hPa 0 mm
07 mai 00:26 11.7°C 86% 5.3 km/h S 1011.8 hPa 0.14 mm
07 mai 00:25 11.7°C 86% 6.3 km/h SE 1011.9 hPa 0 mm
07 mai 00:24 11.7°C 86% 4.8 km/h SE 1011.9 hPa 0 mm
07 mai 00:23 11.8°C 86% 4.2 km/h S 1011.9 hPa 0 mm
07 mai 00:22 11.8°C 86% 6.3 km/h SSE 1011.9 hPa 0 mm
07 mai 00:21 11.8°C 86% 6.9 km/h SSE 1011.8 hPa 0 mm
07 mai 00:20 11.6°C 87% 7.4 km/h S 1011.8 hPa 0 mm
07 mai 00:19 11.7°C 87% 7.9 km/h SSO 1011.8 hPa 0 mm
07 mai 00:18 11.6°C 87% 5.8 km/h S 1011.9 hPa 0 mm
07 mai 00:17 11.7°C 87% 9.5 km/h SSO 1011.9 hPa 0 mm
07 mai 00:16 11.8°C 87% 6.9 km/h S 1011.9 hPa 0 mm
07 mai 00:15 11.8°C 86% 5.3 km/h SSO 1011.9 hPa 0 mm
07 mai 00:14 11.9°C 86% 7.9 km/h S 1011.9 hPa 0 mm
07 mai 00:13 11.7°C 87% 9.5 km/h S 1011.9 hPa 0 mm
07 mai 00:12 11.6°C 87% 7.9 km/h SSO 1011.9 hPa 0 mm
07 mai 00:11 11.6°C 87% 7.9 km/h SSE 1011.8 hPa 0 mm
07 mai 00:10 11.6°C 87% 8.4 km/h SSO 1011.8 hPa 0 mm
07 mai 00:09 11.6°C 87% 8.4 km/h SSO 1011.7 hPa 0.14 mm
07 mai 00:08 11.5°C 88% 11.1 km/h SSE 1011.7 hPa 0 mm
07 mai 00:07 11.6°C 87% 6.9 km/h SO 1011.8 hPa 0 mm
07 mai 00:06 11.6°C 87% 7.4 km/h SO 1011.8 hPa 0 mm
07 mai 00:05 11.7°C 87% 7.4 km/h SO 1011.9 hPa 0 mm
07 mai 00:04 11.8°C 86% 8.4 km/h SSO 1012.0 hPa 0 mm
07 mai 00:03 11.9°C 86% 7.4 km/h SSO 1011.9 hPa 0 mm
07 mai 00:02 12.0°C 85% 9.0 km/h SO 1011.8 hPa 0 mm
07 mai 00:01 11.9°C 85% 11.1 km/h SO 1011.8 hPa 0 mm
07 mai 00:00 11.9°C 86% 12.1 km/h S 1011.8 hPa 0 mm
06 mai 23:59 11.7°C 86% 7.9 km/h S 1011.8 hPa 0 mm
06 mai 23:58 11.7°C 87% 8.4 km/h SO 1011.8 hPa 0 mm
06 mai 23:57 11.7°C 87% 11.1 km/h S 1011.8 hPa 0 mm
06 mai 23:56 11.8°C 86% 9.5 km/h SSO 1011.8 hPa 0 mm
06 mai 23:55 11.8°C 86% 8.4 km/h SSO 1011.8 hPa 0 mm
06 mai 23:54 11.8°C 86% 7.9 km/h SSO 1011.8 hPa 0.14 mm
06 mai 23:53 11.8°C 86% 8.4 km/h S 1011.7 hPa 0 mm
06 mai 23:52 11.8°C 86% 10.0 km/h SSO 1011.8 hPa 0 mm
06 mai 23:51 11.8°C 86% 9.5 km/h S 1011.8 hPa 0 mm
06 mai 23:50 11.8°C 86% 7.4 km/h SSO 1011.8 hPa 0 mm
06 mai 23:49 11.8°C 86% 6.9 km/h SSE 1011.8 hPa 0 mm
06 mai 23:48 11.8°C 86% 6.3 km/h SSO 1011.8 hPa 0 mm
06 mai 23:47 11.8°C 86% 7.4 km/h SSE 1011.7 hPa 0 mm
06 mai 23:46 11.8°C 86% 9.5 km/h S 1011.8 hPa 0 mm
06 mai 23:45 11.8°C 86% 7.4 km/h SSE 1011.8 hPa 0 mm
06 mai 23:44 11.9°C 86% 9.5 km/h S 1011.8 hPa 0 mm
06 mai 23:43 11.9°C 86% 9.0 km/h SSE 1011.8 hPa 0 mm
06 mai 23:42 11.9°C 86% 9.5 km/h SSO 1011.8 hPa 0 mm
06 mai 23:41 12.0°C 86% 5.8 km/h SSO 1011.8 hPa 0 mm
06 mai 23:40 12.0°C 86% 7.4 km/h S 1011.8 hPa 0 mm
06 mai 23:39 12.0°C 86% 9.0 km/h SSO 1011.8 hPa 0 mm
06 mai 23:38 12.0°C 86% 6.9 km/h S 1011.9 hPa 0 mm
06 mai 23:37 12.1°C 86% 7.4 km/h SSO 1011.8 hPa 0 mm
06 mai 23:36 12.1°C 85% 7.4 km/h S 1011.9 hPa 0 mm
06 mai 23:35 12.2°C 85% 7.4 km/h SSO 1011.8 hPa 0 mm
06 mai 23:34 12.2°C 85% 6.9 km/h S 1011.8 hPa 0 mm
06 mai 23:33 12.3°C 85% 7.9 km/h S 1011.8 hPa 0 mm
06 mai 23:32 12.3°C 85% 7.4 km/h SSO 1011.8 hPa 0 mm
06 mai 23:31 12.3°C 85% 9.0 km/h SSO 1011.8 hPa 0 mm
06 mai 23:30 12.3°C 85% 10.0 km/h S 1011.8 hPa 0 mm
06 mai 23:29 12.3°C 85% 11.1 km/h SSO 1011.8 hPa 0 mm
06 mai 23:28 12.3°C 85% 10.6 km/h SO 1011.8 hPa 0 mm
06 mai 23:27 12.3°C 85% 7.9 km/h S 1011.8 hPa 0 mm
06 mai 23:26 12.3°C 85% 9.0 km/h S 1011.8 hPa 0.14 mm
06 mai 23:25 12.3°C 85% 10.0 km/h S 1011.7 hPa 0 mm
06 mai 23:24 12.3°C 85% 10.0 km/h SSE 1011.8 hPa 0 mm
06 mai 23:23 12.3°C 85% 8.4 km/h S 1011.7 hPa 0 mm
06 mai 23:22 12.3°C 85% 10.0 km/h SSE 1011.7 hPa 0 mm
06 mai 23:21 12.2°C 85% 10.0 km/h S 1011.7 hPa 0 mm
06 mai 23:20 12.2°C 86% 10.6 km/h S 1011.8 hPa 0 mm
06 mai 23:19 12.2°C 86% 9.0 km/h S 1011.9 hPa 0 mm
06 mai 23:18 12.2°C 86% 8.4 km/h S 1011.9 hPa 0 mm
06 mai 23:17 12.2°C 86% 8.4 km/h SO 1011.9 hPa 0 mm
06 mai 23:16 12.2°C 86% 9.0 km/h SSO 1011.9 hPa 0 mm
06 mai 23:15 12.2°C 86% 10.0 km/h SSO 1011.9 hPa 0 mm
06 mai 23:14 12.2°C 86% 12.1 km/h S 1011.9 hPa 0 mm
06 mai 23:13 12.2°C 86% 11.1 km/h SSE 1011.8 hPa 0 mm
06 mai 23:12 12.2°C 85% 9.0 km/h SSO 1011.8 hPa 0 mm
06 mai 23:11 12.3°C 85% 10.0 km/h SSE 1011.9 hPa 0 mm
06 mai 23:10 12.2°C 86% 9.5 km/h SSE 1011.8 hPa 0 mm
06 mai 23:09 12.3°C 85% 7.9 km/h SSO 1011.8 hPa 0 mm
06 mai 23:08 12.3°C 85% 9.0 km/h SSO 1011.8 hPa 0 mm
06 mai 23:07 12.4°C 85% 7.4 km/h SSO 1011.8 hPa 0 mm
06 mai 23:06 12.4°C 85% 6.3 km/h S 1011.8 hPa 0 mm
06 mai 23:05 12.4°C 85% 6.9 km/h S 1011.8 hPa 0 mm
06 mai 23:04 12.4°C 85% 5.8 km/h S 1011.8 hPa 0 mm
06 mai 23:03 12.5°C 84% 8.4 km/h S 1011.7 hPa 0 mm
06 mai 23:02 12.5°C 85% 7.9 km/h S 1011.7 hPa 0 mm
06 mai 23:01 12.4°C 85% 7.4 km/h SSE 1011.8 hPa 0 mm
06 mai 23:00 12.4°C 85% 7.4 km/h S 1011.7 hPa 0 mm
06 mai 22:59 12.4°C 85% 6.9 km/h SSO 1011.7 hPa 0 mm
06 mai 22:58 12.4°C 85% 7.4 km/h SSE 1011.7 hPa 0 mm
06 mai 22:57 12.5°C 85% 6.9 km/h SSO 1011.7 hPa 0 mm
06 mai 22:56 12.5°C 85% 6.3 km/h S 1011.7 hPa 0 mm
06 mai 22:55 12.5°C 85% 7.4 km/h S 1011.6 hPa 0 mm
06 mai 22:54 12.5°C 85% 9.0 km/h S 1011.6 hPa 0 mm
06 mai 22:53 12.4°C 86% 9.5 km/h S 1011.7 hPa 0 mm
06 mai 22:52 12.3°C 86% 8.4 km/h S 1011.6 hPa 0 mm
06 mai 22:51 12.3°C 86% 6.9 km/h SSO 1011.6 hPa 0 mm
06 mai 22:50 12.3°C 87% 7.9 km/h S 1011.6 hPa 0 mm
06 mai 22:49 12.2°C 87% 7.4 km/h SO 1011.7 hPa 0 mm
06 mai 22:48 12.2°C 87% 5.8 km/h SSO 1011.7 hPa 0 mm
06 mai 22:47 12.2°C 87% 6.9 km/h S 1011.7 hPa 0 mm
06 mai 22:46 12.2°C 87% 7.4 km/h SSE 1011.7 hPa 0 mm
06 mai 22:45 12.1°C 87% 5.8 km/h SSO 1011.7 hPa 0 mm
06 mai 22:44 12.1°C 88% 6.3 km/h S 1011.7 hPa 0 mm
06 mai 22:43 12.2°C 87% 5.8 km/h SSO 1011.8 hPa 0 mm
06 mai 22:42 12.3°C 87% 4.8 km/h SSO 1011.8 hPa 0 mm
06 mai 22:41 12.3°C 87% 3.7 km/h S 1011.8 hPa 0 mm
06 mai 22:40 12.4°C 87% 5.3 km/h S 1011.8 hPa 0 mm
06 mai 22:39 12.4°C 86% 5.3 km/h SSO 1011.7 hPa 0 mm
06 mai 22:38 12.5°C 86% 4.8 km/h SO 1011.8 hPa 0 mm
06 mai 22:37 12.6°C 86% 4.8 km/h SO 1011.7 hPa 0 mm
06 mai 22:36 12.5°C 86% 6.3 km/h SSE 1011.7 hPa 0 mm
06 mai 22:35 12.5°C 86% 6.3 km/h S 1011.7 hPa 0 mm
06 mai 22:34 12.6°C 86% 6.9 km/h S 1011.7 hPa 0 mm
06 mai 22:33 12.6°C 86% 7.9 km/h SE 1011.7 hPa 0 mm
06 mai 22:32 12.6°C 86% 7.9 km/h S 1011.7 hPa 0 mm
06 mai 22:31 12.6°C 86% 6.9 km/h SE 1011.7 hPa 0 mm
06 mai 22:30 12.5°C 86% 8.4 km/h S 1011.7 hPa 0 mm
06 mai 22:29 12.6°C 86% 6.9 km/h SSO 1011.7 hPa 0 mm
06 mai 22:28 12.7°C 86% 8.4 km/h S 1011.6 hPa 0 mm
06 mai 22:27 12.6°C 86% 11.6 km/h SSE 1011.6 hPa 0 mm
06 mai 22:26 12.7°C 86% 8.4 km/h SSE 1011.6 hPa 0 mm
06 mai 22:25 12.7°C 86% 9.0 km/h SSE 1011.6 hPa 0 mm
06 mai 22:24 12.7°C 86% 10.6 km/h S 1011.6 hPa 0 mm
06 mai 22:23 12.6°C 86% 9.5 km/h SSE 1011.6 hPa 0 mm
06 mai 22:22 12.7°C 86% 10.0 km/h S 1011.6 hPa 0 mm
06 mai 22:21 12.7°C 86% 9.5 km/h SE 1011.6 hPa 0 mm
06 mai 22:20 12.7°C 86% 8.4 km/h SE 1011.6 hPa 0 mm
06 mai 22:19 12.7°C 86% 9.5 km/h SSE 1011.6 hPa 0 mm
06 mai 22:18 12.7°C 86% 8.4 km/h SSE 1011.6 hPa 0 mm
06 mai 22:17 12.7°C 86% 6.3 km/h SE 1011.6 hPa 0 mm
06 mai 22:16 12.7°C 86% 9.0 km/h S 1011.6 hPa 0 mm
06 mai 22:15 12.7°C 86% 7.4 km/h SSE 1011.6 hPa 0 mm
06 mai 22:14 12.8°C 86% 8.4 km/h SSE 1011.7 hPa 0 mm
06 mai 22:13 12.7°C 86% 9.0 km/h S 1011.7 hPa 0 mm
06 mai 22:12 12.7°C 87% 8.4 km/h SSE 1011.7 hPa 0 mm
06 mai 22:11 12.7°C 87% 6.3 km/h SSE 1011.6 hPa 0 mm
06 mai 22:10 12.7°C 87% 8.4 km/h SE 1011.7 hPa 0 mm
06 mai 22:09 12.7°C 87% 7.4 km/h SE 1011.8 hPa 0 mm
06 mai 22:08 12.7°C 87% 7.9 km/h SE 1011.8 hPa 0 mm
06 mai 22:07 12.7°C 87% 8.4 km/h S 1011.8 hPa 0 mm
06 mai 22:06 12.7°C 87% 8.4 km/h SSE 1011.9 hPa 0 mm
06 mai 22:05 12.7°C 87% 10.6 km/h SSE 1011.9 hPa 0 mm
06 mai 22:04 12.7°C 87% 10.0 km/h SE 1011.9 hPa 0 mm
06 mai 22:03 12.7°C 87% 11.1 km/h SSE 1011.9 hPa 0 mm
06 mai 22:02 12.7°C 87% 10.0 km/h SE 1011.8 hPa 0 mm
06 mai 22:01 12.6°C 87% 13.7 km/h SSE 1011.9 hPa 0 mm
06 mai 22:00 12.6°C 87% 9.5 km/h SE 1011.9 hPa 0 mm
06 mai 21:59 12.6°C 88% 9.5 km/h SE 1011.9 hPa 0 mm
06 mai 21:58 12.6°C 88% 7.9 km/h SSE 1011.9 hPa 0 mm
06 mai 21:57 12.6°C 88% 9.0 km/h SSE 1011.8 hPa 0 mm
06 mai 21:56 12.6°C 88% 9.0 km/h SE 1011.6 hPa 0 mm
06 mai 21:55 12.6°C 88% 6.3 km/h S 1011.5 hPa 0 mm
06 mai 21:54 12.6°C 88% 7.4 km/h ESE 1011.5 hPa 0 mm
06 mai 21:53 12.7°C 88% 9.0 km/h SSE 1011.6 hPa 0 mm
06 mai 21:52 12.6°C 88% 11.6 km/h ESE 1011.6 hPa 0 mm
06 mai 21:51 12.4°C 89% 10.6 km/h SSE 1011.6 hPa 0 mm
06 mai 21:50 12.4°C 89% 9.0 km/h S 1011.6 hPa 0 mm
06 mai 21:49 12.4°C 89% 5.8 km/h SSO 1011.7 hPa 0 mm
06 mai 21:48 12.4°C 89% 7.4 km/h SE 1011.6 hPa 0 mm
06 mai 21:47 12.3°C 89% 6.9 km/h SSO 1011.6 hPa 0 mm
06 mai 21:46 12.3°C 89% 5.8 km/h S 1011.6 hPa 0 mm
06 mai 21:45 12.2°C 90% 6.3 km/h S 1011.6 hPa 0 mm
06 mai 21:44 12.2°C 89% 7.4 km/h SE 1011.6 hPa 0 mm
06 mai 21:43 12.3°C 89% 6.3 km/h SSE 1011.6 hPa 0 mm
06 mai 21:42 12.3°C 89% 7.9 km/h S 1011.6 hPa 0 mm
06 mai 21:41 12.3°C 89% 7.4 km/h S 1011.7 hPa 0 mm
06 mai 21:40 12.3°C 89% 7.4 km/h S 1011.7 hPa 0 mm
06 mai 21:39 12.4°C 89% 6.3 km/h S 1011.8 hPa 0 mm
06 mai 21:38 12.4°C 89% 6.3 km/h SO 1011.8 hPa 0 mm
06 mai 21:37 12.4°C 89% 6.3 km/h SO 1011.8 hPa 0 mm
06 mai 21:36 12.4°C 89% 6.9 km/h SSO 1011.7 hPa 0 mm
06 mai 21:35 12.5°C 89% 7.4 km/h SSO 1011.7 hPa 0 mm
06 mai 21:34 12.5°C 88% 6.9 km/h SSO 1011.6 hPa 0 mm
06 mai 21:33 12.6°C 88% 8.4 km/h SSO 1011.6 hPa 0 mm
06 mai 21:32 12.5°C 88% 10.6 km/h SSO 1011.6 hPa 0 mm
06 mai 21:31 12.5°C 89% 7.4 km/h S 1011.7 hPa 0 mm
06 mai 21:30 12.5°C 88% 6.9 km/h SSO 1011.7 hPa 0 mm
06 mai 21:29 12.5°C 88% 8.4 km/h S 1011.6 hPa 0 mm
06 mai 21:28 12.5°C 88% 9.0 km/h S 1011.5 hPa 0 mm
06 mai 21:27 12.5°C 88% 8.4 km/h S 1011.4 hPa 0 mm
06 mai 21:26 12.4°C 89% 10.0 km/h SSO 1011.5 hPa 0 mm
06 mai 21:25 12.4°C 89% 10.0 km/h S 1011.4 hPa 0 mm
06 mai 21:24 12.4°C 89% 5.3 km/h SSO 1011.3 hPa 0 mm
06 mai 21:23 12.5°C 88% 5.8 km/h SSO 1011.4 hPa 0 mm
06 mai 21:22 12.5°C 88% 6.3 km/h SSE 1011.4 hPa 0 mm
06 mai 21:21 12.5°C 88% 8.4 km/h SSE 1011.4 hPa 0 mm
06 mai 21:20 12.5°C 88% 6.9 km/h S 1011.3 hPa 0 mm
06 mai 21:19 12.5°C 88% 9.5 km/h SSO 1011.3 hPa 0 mm
06 mai 21:18 12.5°C 88% 10.0 km/h SE 1011.3 hPa 0 mm
06 mai 21:17 12.5°C 88% 9.5 km/h SSE 1011.4 hPa 0 mm
06 mai 21:16 12.4°C 88% 13.2 km/h SSE 1011.3 hPa 0 mm
06 mai 21:15 12.4°C 88% 11.1 km/h SE 1011.3 hPa 0 mm
06 mai 21:14 12.5°C 88% 8.4 km/h S 1011.4 hPa 0 mm
06 mai 21:13 12.6°C 88% 10.6 km/h SSO 1011.4 hPa 0 mm
06 mai 21:12 12.5°C 88% 11.6 km/h SSE 1011.3 hPa 0 mm
06 mai 21:11 12.5°C 88% 9.0 km/h SSE 1011.3 hPa 0 mm
06 mai 21:10 12.5°C 88% 8.4 km/h SSE 1011.3 hPa 0 mm
06 mai 21:09 12.5°C 88% 6.9 km/h SE 1011.3 hPa 0 mm
06 mai 21:08 12.4°C 89% 7.9 km/h S 1011.2 hPa 0 mm
06 mai 21:07 12.4°C 89% 5.8 km/h SSE 1011.3 hPa 0 mm
06 mai 21:06 12.5°C 88% 9.0 km/h SSO 1011.3 hPa 0 mm
06 mai 21:05 12.4°C 89% 12.1 km/h S 1011.2 hPa 0 mm
06 mai 21:04 12.4°C 89% 10.6 km/h SE 1011.2 hPa 0 mm
06 mai 21:03 12.5°C 88% 8.4 km/h S 1011.3 hPa 0 mm
06 mai 21:02 12.5°C 88% 9.0 km/h S 1011.3 hPa 0 mm
06 mai 21:01 12.5°C 88% 9.5 km/h SE 1011.2 hPa 0 mm
06 mai 21:00 12.6°C 88% 9.0 km/h SSE 1011.2 hPa 0 mm
06 mai 20:59 12.6°C 88% 7.4 km/h SSE 1011.2 hPa 0 mm
06 mai 20:58 12.6°C 88% 7.4 km/h SSE 1011.2 hPa 0 mm
06 mai 20:57 12.6°C 88% 9.0 km/h SSE 1011.2 hPa 0 mm
06 mai 20:56 12.6°C 88% 9.0 km/h SSE 1011.1 hPa 0 mm
06 mai 20:55 12.7°C 88% 9.0 km/h SSE 1011.1 hPa 0 mm
06 mai 20:54 12.7°C 88% 7.4 km/h S 1011.1 hPa 0 mm
06 mai 20:53 12.6°C 88% 7.4 km/h SE 1011.1 hPa 0 mm
06 mai 20:52 12.6°C 88% 6.9 km/h E 1011.1 hPa 0 mm
06 mai 20:51 12.6°C 89% 7.9 km/h SSE 1011.1 hPa 0 mm
06 mai 20:50 12.5°C 89% 7.9 km/h S 1011.0 hPa 0 mm
06 mai 20:49 12.5°C 89% 10.0 km/h SE 1011.1 hPa 0 mm
06 mai 20:48 12.6°C 88% 9.0 km/h SSO 1011.1 hPa 0 mm
06 mai 20:47 12.6°C 89% 7.9 km/h S 1011.0 hPa 0 mm
06 mai 20:46 12.6°C 88% 6.9 km/h SSO 1011.0 hPa 0 mm
06 mai 20:45 12.7°C 88% 9.0 km/h SSE 1011.0 hPa 0 mm
06 mai 20:44 12.6°C 89% 10.0 km/h SSE 1011.0 hPa 0 mm
06 mai 20:43 12.6°C 89% 8.4 km/h SSE 1011.0 hPa 0 mm
06 mai 20:42 12.6°C 89% 5.8 km/h SSO 1011.0 hPa 0 mm
06 mai 20:41 12.6°C 89% 6.9 km/h S 1011.0 hPa 0 mm
06 mai 20:40 12.6°C 89% 9.5 km/h SSO 1011.0 hPa 0 mm
06 mai 20:39 12.6°C 89% 9.0 km/h SSE 1011.0 hPa 0 mm
06 mai 20:38 12.5°C 89% 8.4 km/h SE 1011.0 hPa 0 mm
06 mai 20:37 12.5°C 89% 9.5 km/h SSO 1011.0 hPa 0 mm
06 mai 20:36 12.5°C 89% 10.0 km/h SSO 1011.0 hPa 0 mm
06 mai 20:35 12.5°C 89% 10.0 km/h SSO 1011.0 hPa 0 mm
06 mai 20:34 12.4°C 89% 8.4 km/h S 1011.0 hPa 0 mm
06 mai 20:33 12.5°C 89% 8.4 km/h SE 1011.0 hPa 0 mm
06 mai 20:32 12.5°C 89% 7.9 km/h S 1011.0 hPa 0 mm
06 mai 20:31 12.5°C 89% 8.4 km/h SSO 1011.0 hPa 0 mm
06 mai 20:30 12.5°C 89% 10.6 km/h SSO 1011.0 hPa 0 mm
06 mai 20:29 12.5°C 89% 7.9 km/h S 1011.0 hPa 0 mm
06 mai 20:28 12.5°C 89% 8.4 km/h SSE 1011.0 hPa 0 mm
06 mai 20:27 12.4°C 90% 8.4 km/h SSE 1011.0 hPa 0 mm
06 mai 20:26 12.4°C 90% 6.3 km/h S 1011.0 hPa 0 mm
06 mai 20:25 12.4°C 90% 7.4 km/h S 1011.0 hPa 0 mm
06 mai 20:24 12.4°C 90% 6.3 km/h SSO 1011.0 hPa 0 mm
06 mai 20:23 12.4°C 90% 6.3 km/h S 1011.0 hPa 0 mm
06 mai 20:22 12.4°C 89% 5.8 km/h S 1011.0 hPa 0 mm
06 mai 20:21 12.5°C 89% 6.3 km/h S 1011.0 hPa 0 mm
06 mai 20:20 12.5°C 89% 7.9 km/h SSE 1010.9 hPa 0 mm
06 mai 20:19 12.5°C 89% 6.3 km/h SSE 1010.9 hPa 0 mm
06 mai 20:18 12.5°C 89% 6.3 km/h SE 1010.9 hPa 0 mm
06 mai 20:17 12.5°C 89% 6.3 km/h SSO 1010.9 hPa 0 mm
06 mai 20:16 12.5°C 90% 8.4 km/h SSE 1010.9 hPa 0 mm
06 mai 20:15 12.4°C 90% 7.9 km/h SSO 1011.0 hPa 0 mm
06 mai 20:14 12.4°C 90% 8.4 km/h SO 1011.0 hPa 0 mm
06 mai 20:13 12.4°C 90% 9.5 km/h SSO 1011.0 hPa 0 mm
06 mai 20:12 12.4°C 89% 9.5 km/h SSO 1011.0 hPa 0 mm
06 mai 20:11 12.4°C 90% 11.6 km/h S 1011.0 hPa 0 mm
06 mai 20:10 12.4°C 89% 7.4 km/h SSO 1011.0 hPa 0.14 mm
06 mai 20:09 12.5°C 89% 5.8 km/h SSO 1011.0 hPa 0 mm
06 mai 20:08 12.5°C 89% 7.4 km/h SSO 1011.0 hPa 0 mm
06 mai 20:07 12.5°C 89% 12.7 km/h S 1011.0 hPa 0 mm
06 mai 20:06 12.6°C 89% 9.5 km/h S 1011.0 hPa 0 mm
06 mai 20:05 12.6°C 89% 9.0 km/h SSO 1011.0 hPa 0 mm
06 mai 20:04 12.6°C 89% 8.4 km/h SSO 1011.0 hPa 0 mm
06 mai 20:03 12.5°C 89% 10.6 km/h S 1010.9 hPa 0.14 mm
06 mai 20:02 12.6°C 89% 7.4 km/h SSO 1010.9 hPa 0 mm
06 mai 20:01 12.6°C 89% 10.0 km/h S 1010.9 hPa 0 mm
06 mai 20:00 12.6°C 89% 7.9 km/h SO 1010.9 hPa 0.14 mm
06 mai 19:59 12.6°C 89% 6.9 km/h SO 1010.9 hPa 0 mm
06 mai 19:58 12.6°C 89% 6.3 km/h SO 1010.9 hPa 0 mm
06 mai 19:57 12.6°C 89% 9.0 km/h SSO 1010.9 hPa 0.14 mm
06 mai 19:56 12.6°C 89% 7.4 km/h SO 1010.9 hPa 0 mm
06 mai 19:55 12.6°C 89% 11.1 km/h S 1010.9 hPa 0 mm
06 mai 19:54 12.6°C 89% 6.9 km/h S 1010.9 hPa 0 mm
06 mai 19:53 12.5°C 89% 8.4 km/h SSO 1010.9 hPa 0 mm
06 mai 19:52 12.6°C 89% 9.0 km/h SSO 1010.9 hPa 0.14 mm
06 mai 19:51 12.5°C 89% 8.4 km/h SSO 1010.9 hPa 0 mm
06 mai 19:50 12.6°C 89% 10.0 km/h S 1010.9 hPa 0 mm
06 mai 19:49 12.6°C 88% 9.5 km/h SO 1010.9 hPa 0 mm
06 mai 19:48 12.6°C 88% 11.6 km/h SSO 1010.9 hPa 0.14 mm
06 mai 19:47 12.6°C 88% 11.1 km/h SO 1010.8 hPa 0 mm
06 mai 19:46 12.6°C 88% 10.0 km/h SSO 1010.8 hPa 0 mm
06 mai 19:45 12.6°C 88% 9.5 km/h SSO 1010.8 hPa 0.14 mm
06 mai 19:44 12.7°C 88% 13.7 km/h SSO 1010.8 hPa 0 mm
06 mai 19:43 12.7°C 88% 11.1 km/h S 1010.8 hPa 0 mm
06 mai 19:42 12.7°C 88% 12.1 km/h SO 1010.8 hPa 0 mm
06 mai 19:41 12.7°C 88% 16.9 km/h SSO 1010.7 hPa 0.14 mm
06 mai 19:40 12.6°C 88% 24.3 km/h SSO 1010.8 hPa 0 mm
06 mai 19:39 12.7°C 88% 12.7 km/h SO 1010.8 hPa 0 mm
06 mai 19:38 12.7°C 88% 13.7 km/h SSO 1010.8 hPa 0.14 mm
06 mai 19:37 12.7°C 87% 13.2 km/h SSO 1010.7 hPa 0 mm
06 mai 19:36 12.8°C 87% 18.5 km/h SSO 1010.7 hPa 0 mm
06 mai 19:35 12.7°C 87% 14.2 km/h SSO 1010.7 hPa 0.14 mm
06 mai 19:34 12.7°C 87% 15.8 km/h S 1010.7 hPa 0 mm
06 mai 19:33 12.8°C 87% 19.5 km/h S 1010.7 hPa 0 mm
06 mai 19:32 12.7°C 87% 20.6 km/h SSO 1010.7 hPa 0 mm
06 mai 19:31 12.8°C 87% 16.9 km/h SO 1010.7 hPa 0 mm
06 mai 19:30 12.8°C 87% 15.8 km/h SSO 1010.7 hPa 0 mm
06 mai 19:29 12.8°C 87% 16.4 km/h SO 1010.6 hPa 0 mm
06 mai 19:28 12.8°C 87% 19.0 km/h S 1010.6 hPa 0.14 mm
06 mai 19:27 12.8°C 86% 22.7 km/h SO 1010.6 hPa 0 mm
06 mai 19:26 12.9°C 86% 19.0 km/h SSO 1010.6 hPa 0 mm
06 mai 19:25 12.8°C 86% 24.3 km/h SO 1010.5 hPa 0.14 mm
06 mai 19:24 12.8°C 86% 22.7 km/h S 1010.5 hPa 0 mm
06 mai 19:23 12.9°C 86% 22.7 km/h SSO 1010.6 hPa 0 mm
06 mai 19:22 13.0°C 86% 18.5 km/h SO 1010.6 hPa 0.14 mm
06 mai 19:21 13.0°C 86% 29.0 km/h S 1010.6 hPa 0 mm
06 mai 19:20 12.9°C 86% 21.6 km/h S 1010.6 hPa 0 mm
06 mai 19:19 12.9°C 86% 21.1 km/h SSO 1010.6 hPa 0 mm
06 mai 19:18 12.9°C 86% 24.3 km/h SO 1010.6 hPa 0.14 mm
06 mai 19:17 13.0°C 86% 28.5 km/h SSO 1010.6 hPa 0 mm
06 mai 19:16 13.0°C 86% 34.8 km/h SSO 1010.6 hPa 0 mm
06 mai 19:15 13.0°C 85% 34.3 km/h SO 1010.6 hPa 0 mm
06 mai 19:14 13.0°C 85% 20.6 km/h SSO 1010.5 hPa 0.14 mm
06 mai 19:13 13.0°C 85% 23.8 km/h SO 1010.5 hPa 0 mm
06 mai 19:12 13.0°C 85% 16.4 km/h SO 1010.5 hPa 0 mm
06 mai 19:11 13.1°C 85% 22.2 km/h S 1010.5 hPa 0 mm
06 mai 19:10 13.0°C 85% 17.9 km/h S 1010.5 hPa 0.14 mm
06 mai 19:09 13.0°C 85% 23.2 km/h SSE 1010.5 hPa 0 mm
06 mai 19:08 13.0°C 85% 23.2 km/h S 1010.4 hPa 0 mm
06 mai 19:07 13.0°C 85% 19.5 km/h SSO 1010.4 hPa 0 mm
06 mai 19:06 13.0°C 85% 24.8 km/h SO 1010.4 hPa 0.14 mm
06 mai 19:05 13.0°C 85% 16.4 km/h S 1010.4 hPa 0 mm
06 mai 19:04 13.0°C 85% 16.4 km/h SO 1010.4 hPa 0 mm
06 mai 19:03 13.1°C 85% 12.7 km/h S 1010.4 hPa 0 mm
06 mai 19:02 13.2°C 84% 15.8 km/h SO 1010.3 hPa 0.14 mm
06 mai 19:01 13.2°C 84% 16.9 km/h SSO 1010.3 hPa 0 mm
06 mai 19:00 13.2°C 84% 17.4 km/h SO 1010.3 hPa 0 mm
06 mai 18:59 13.2°C 84% 13.2 km/h S 1010.3 hPa 0.14 mm
06 mai 18:58 13.2°C 84% 14.2 km/h S 1010.2 hPa 0 mm
06 mai 18:57 13.2°C 84% 15.3 km/h S 1010.2 hPa 0 mm
06 mai 18:56 13.3°C 84% 15.8 km/h SO 1010.2 hPa 0 mm
06 mai 18:55 13.2°C 84% 16.9 km/h S 1010.2 hPa 0.14 mm
06 mai 18:54 13.2°C 84% 18.5 km/h S 1010.1 hPa 0 mm
06 mai 18:53 13.2°C 84% 16.4 km/h SSO 1010.1 hPa 0 mm
06 mai 18:52 13.2°C 84% 13.2 km/h SSO 1010.2 hPa 0 mm
06 mai 18:51 13.2°C 84% 13.7 km/h SSO 1010.1 hPa 0.14 mm
06 mai 18:50 13.2°C 83% 19.0 km/h S 1010.0 hPa 0 mm
06 mai 18:49 13.2°C 84% 20.6 km/h SSO 1010.0 hPa 0 mm
06 mai 18:48 13.2°C 84% 14.2 km/h SSO 1010.1 hPa 0.14 mm
06 mai 18:47 13.2°C 84% 16.4 km/h SSO 1010.1 hPa 0 mm
06 mai 18:46 13.3°C 83% 31.1 km/h SSO 1010.1 hPa 0 mm
06 mai 18:45 13.3°C 83% 26.4 km/h SO 1010.1 hPa 0.14 mm
06 mai 18:44 13.2°C 83% 24.3 km/h SSO 1010.1 hPa 0 mm
06 mai 18:43 13.2°C 83% 29.6 km/h SSO 1010.1 hPa 0 mm
06 mai 18:42 13.3°C 83% 24.3 km/h S 1010.0 hPa 0 mm
06 mai 18:41 13.3°C 83% 24.3 km/h S 1010.0 hPa 0 mm
06 mai 18:40 13.3°C 83% 14.8 km/h SSO 1010.0 hPa 0 mm
06 mai 18:39 13.3°C 83% 15.3 km/h SSO 1010.0 hPa 0.14 mm
06 mai 18:38 13.3°C 82% 18.5 km/h SSO 1010.0 hPa 0 mm
06 mai 18:37 13.3°C 82% 15.8 km/h S 1010.0 hPa 0 mm
06 mai 18:36 13.4°C 82% 20.1 km/h SSE 1009.9 hPa 0 mm
06 mai 18:35 13.3°C 82% 24.8 km/h S 1009.9 hPa 0 mm
06 mai 18:34 13.3°C 82% 14.2 km/h S 1009.9 hPa 0 mm
06 mai 18:33 13.4°C 81% 20.1 km/h S 1010.0 hPa 0 mm
06 mai 18:32 13.4°C 82% 22.2 km/h S 1010.0 hPa 0 mm
06 mai 18:31 13.4°C 82% 16.4 km/h S 1010.0 hPa 0 mm
06 mai 18:30 13.4°C 81% 16.4 km/h S 1009.9 hPa 0 mm
06 mai 18:29 13.5°C 81% 17.9 km/h S 1009.9 hPa 0.14 mm
06 mai 18:28 13.4°C 81% 21.1 km/h SSE 1009.9 hPa 0 mm
06 mai 18:27 13.4°C 81% 19.5 km/h SSO 1009.9 hPa 0 mm
06 mai 18:26 13.4°C 81% 15.3 km/h SSO 1009.9 hPa 0 mm
06 mai 18:25 13.4°C 81% 13.2 km/h S 1009.9 hPa 0 mm
06 mai 18:24 13.4°C 81% 13.2 km/h S 1009.9 hPa 0 mm
06 mai 18:23 13.4°C 81% 13.7 km/h SSE 1009.9 hPa 0 mm
06 mai 18:22 13.3°C 81% 9.0 km/h SSO 1009.9 hPa 0 mm
06 mai 18:21 13.3°C 81% 10.6 km/h SSE 1009.9 hPa 0 mm
06 mai 18:20 13.3°C 81% 13.2 km/h SSE 1009.9 hPa 0 mm
06 mai 18:19 13.3°C 81% 15.8 km/h SSO 1009.9 hPa 0 mm
06 mai 18:18 13.4°C 81% 13.2 km/h S 1009.9 hPa 0 mm
06 mai 18:17 13.4°C 81% 12.7 km/h S 1009.9 hPa 0 mm
06 mai 18:16 13.4°C 81% 17.4 km/h S 1009.9 hPa 0 mm
06 mai 18:15 13.4°C 80% 16.4 km/h SSE 1009.8 hPa 0 mm
06 mai 18:14 13.4°C 81% 15.8 km/h SSO 1009.9 hPa 0 mm
06 mai 18:13 13.4°C 81% 20.1 km/h SSE 1009.9 hPa 0 mm
06 mai 18:12 13.3°C 81% 15.3 km/h SSO 1009.8 hPa 0 mm
06 mai 18:11 13.3°C 81% 18.5 km/h SSE 1009.9 hPa 0 mm
06 mai 18:10 13.2°C 81% 16.4 km/h S 1009.9 hPa 0 mm
06 mai 18:09 13.2°C 81% 12.1 km/h SE 1009.9 hPa 0 mm
06 mai 18:08 13.2°C 81% 15.8 km/h SSO 1009.9 hPa 0 mm
06 mai 18:07 13.2°C 81% 13.2 km/h S 1009.9 hPa 0 mm
06 mai 18:06 13.2°C 81% 12.7 km/h S 1009.9 hPa 0 mm
06 mai 18:05 13.2°C 81% 17.9 km/h SSO 1009.9 hPa 0.14 mm
06 mai 18:04 13.1°C 82% 11.6 km/h S 1009.9 hPa 0 mm
06 mai 18:03 13.1°C 82% 12.7 km/h S 1009.9 hPa 0 mm
06 mai 18:02 13.1°C 81% 10.6 km/h S 1009.9 hPa 0 mm
06 mai 18:01 13.2°C 81% 16.4 km/h SSE 1009.9 hPa 0 mm
06 mai 18:00 13.1°C 81% 16.9 km/h SE 1009.9 hPa 0 mm
06 mai 17:59 13.1°C 81% 15.3 km/h SSO 1009.9 hPa 0 mm
06 mai 17:58 13.1°C 81% 11.1 km/h ESE 1009.9 hPa 0 mm
06 mai 17:57 13.1°C 81% 12.7 km/h SSE 1009.9 hPa 0.14 mm
06 mai 17:56 13.1°C 81% 15.8 km/h S 1009.9 hPa 0 mm
06 mai 17:55 13.0°C 81% 15.3 km/h SE 1009.9 hPa 0 mm
06 mai 17:54 13.0°C 81% 12.7 km/h SSE 1009.9 hPa 0 mm
06 mai 17:53 12.9°C 82% 20.1 km/h SSE 1009.9 hPa 0 mm
06 mai 17:52 12.9°C 81% 12.7 km/h SE 1010.0 hPa 0 mm
06 mai 17:51 12.9°C 81% 17.4 km/h SSE 1009.9 hPa 0.14 mm
06 mai 17:50 12.9°C 81% 14.2 km/h SE 1010.0 hPa 0.14 mm
06 mai 17:49 13.0°C 81% 13.2 km/h SSO 1010.0 hPa 0 mm
06 mai 17:48 13.0°C 81% 19.5 km/h S 1010.1 hPa 0 mm
06 mai 17:47 12.9°C 81% 15.3 km/h SSE 1010.1 hPa 0.14 mm
06 mai 17:46 12.9°C 81% 13.7 km/h S 1010.1 hPa 0 mm
06 mai 17:45 13.0°C 80% 14.2 km/h SSO 1010.1 hPa 0 mm
06 mai 17:44 13.0°C 80% 13.2 km/h S 1010.2 hPa 0 mm
06 mai 17:43 13.0°C 80% 13.2 km/h S 1010.1 hPa 0.14 mm
06 mai 17:42 13.0°C 80% 13.7 km/h SE 1010.1 hPa 0 mm
06 mai 17:41 13.0°C 80% 13.7 km/h SSE 1010.1 hPa 0 mm
06 mai 17:40 13.0°C 80% 14.2 km/h SSE 1010.1 hPa 0 mm
06 mai 17:39 13.0°C 80% 17.9 km/h SE 1010.1 hPa 0.14 mm
06 mai 17:38 13.0°C 80% 17.4 km/h S 1010.1 hPa 0 mm
06 mai 17:37 13.0°C 80% 14.8 km/h SSE 1010.1 hPa 0 mm
06 mai 17:36 13.0°C 80% 14.2 km/h S 1010.1 hPa 0 mm
06 mai 17:35 13.0°C 80% 17.9 km/h SSE 1010.2 hPa 0.14 mm
06 mai 17:34 13.0°C 79% 17.4 km/h S 1010.2 hPa 0 mm
06 mai 17:33 13.0°C 80% 19.0 km/h S 1010.2 hPa 0 mm
06 mai 17:32 13.0°C 80% 12.1 km/h S 1010.2 hPa 0 mm
06 mai 17:31 13.1°C 79% 13.7 km/h S 1010.1 hPa 0 mm
06 mai 17:30 13.1°C 79% 22.2 km/h S 1010.1 hPa 0 mm
06 mai 17:29 13.1°C 79% 15.8 km/h SSE 1010.1 hPa 0.14 mm
06 mai 17:28 13.2°C 78% 17.9 km/h SSE 1010.1 hPa 0 mm
06 mai 17:27 13.1°C 79% 21.1 km/h S 1010.1 hPa 0 mm
06 mai 17:26 13.1°C 79% 11.1 km/h SSE 1010.0 hPa 0 mm
06 mai 17:25 13.1°C 79% 16.9 km/h SSE 1010.1 hPa 0 mm
06 mai 17:24 13.1°C 78% 16.4 km/h SSO 1010.0 hPa 0 mm
06 mai 17:23 13.1°C 79% 15.8 km/h SSE 1010.0 hPa 0 mm
06 mai 17:22 13.2°C 78% 14.8 km/h SSO 1010.0 hPa 0 mm
06 mai 17:21 13.2°C 78% 15.3 km/h SSO 1010.0 hPa 0 mm
06 mai 17:21 13.2°C 78% 17.4 km/h SSE 1010.0 hPa 0.14 mm
06 mai 17:20 13.2°C 78% 16.4 km/h SO 1010.0 hPa 0 mm
06 mai 17:19 13.3°C 78% 16.9 km/h S 1010.0 hPa 0 mm
06 mai 17:18 13.3°C 78% 19.5 km/h SSE 1010.0 hPa 0.14 mm
06 mai 17:17 13.3°C 77% 19.0 km/h SSO 1010.0 hPa 0 mm
06 mai 17:16 13.3°C 77% 19.5 km/h SSO 1009.9 hPa 0 mm
06 mai 17:15 13.4°C 77% 17.9 km/h SSO 1009.9 hPa 0 mm
06 mai 17:14 13.4°C 77% 19.5 km/h S 1009.9 hPa 0.14 mm
06 mai 17:13 13.4°C 76% 16.9 km/h SSE 1009.9 hPa 0 mm
06 mai 17:12 13.4°C 76% 22.2 km/h S 1009.9 hPa 0 mm
06 mai 17:11 13.4°C 76% 14.8 km/h S 1009.9 hPa 0.14 mm
06 mai 17:10 13.3°C 77% 13.2 km/h SSO 1009.8 hPa 0 mm
06 mai 17:09 13.4°C 76% 14.2 km/h SSE 1009.8 hPa 0 mm
06 mai 17:08 13.4°C 75% 14.8 km/h SE 1009.8 hPa 0 mm
06 mai 17:07 13.4°C 76% 16.9 km/h SSE 1009.8 hPa 0.14 mm
06 mai 17:06 13.4°C 76% 15.8 km/h S 1009.9 hPa 0 mm
06 mai 17:05 13.3°C 76% 13.7 km/h SSE 1009.8 hPa 0 mm
06 mai 17:04 13.3°C 76% 11.1 km/h S 1009.8 hPa 0 mm
06 mai 17:03 13.3°C 75% 15.8 km/h S 1009.8 hPa 0 mm
06 mai 17:02 13.3°C 75% 10.6 km/h S 1009.8 hPa 0.14 mm
06 mai 17:01 13.4°C 75% 13.7 km/h SO 1009.8 hPa 0 mm
06 mai 17:00 13.5°C 74% 20.1 km/h SSE 1009.8 hPa 0 mm
06 mai 16:59 13.4°C 74% 18.5 km/h SO 1009.7 hPa 0.14 mm
06 mai 16:58 13.5°C 74% 18.5 km/h SSE 1009.7 hPa 0 mm
06 mai 16:57 13.5°C 75% 23.8 km/h SSE 1009.7 hPa 0 mm
06 mai 16:56 13.6°C 74% 14.8 km/h SSO 1009.7 hPa 0 mm
06 mai 16:55 13.5°C 74% 18.5 km/h S 1009.7 hPa 0.14 mm
06 mai 16:54 13.6°C 74% 14.2 km/h S 1009.6 hPa 0 mm
06 mai 16:53 13.6°C 74% 15.8 km/h SSE 1009.6 hPa 0 mm
06 mai 16:52 13.6°C 73% 9.5 km/h S 1009.6 hPa 0 mm
06 mai 16:51 13.6°C 73% 15.3 km/h S 1009.5 hPa 0 mm
06 mai 16:50 13.7°C 73% 19.0 km/h SSO 1009.5 hPa 0 mm
06 mai 16:49 13.8°C 72% 13.7 km/h S 1009.5 hPa 0.14 mm
06 mai 16:48 13.7°C 72% 17.4 km/h SSE 1009.5 hPa 0 mm
06 mai 16:47 13.8°C 72% 16.9 km/h SSO 1009.5 hPa 0 mm
06 mai 16:46 13.9°C 71% 19.5 km/h S 1009.4 hPa 0 mm
06 mai 16:45 13.9°C 71% 14.2 km/h S 1009.4 hPa 0.14 mm
06 mai 16:44 14.0°C 71% 23.2 km/h SE 1009.4 hPa 0 mm
06 mai 16:43 14.0°C 71% 15.3 km/h S 1009.4 hPa 0 mm
06 mai 16:42 14.0°C 71% 17.9 km/h SE 1009.4 hPa 0 mm
06 mai 16:41 14.1°C 70% 15.3 km/h SSE 1009.4 hPa 0 mm
06 mai 16:40 14.1°C 70% 15.8 km/h SE 1009.3 hPa 0 mm
06 mai 16:39 14.3°C 69% 23.2 km/h SSO 1009.3 hPa 0 mm
06 mai 16:38 14.2°C 69% 18.5 km/h S 1009.4 hPa 0 mm
06 mai 16:37 14.4°C 68% 21.1 km/h S 1009.3 hPa 0 mm
06 mai 16:36 14.4°C 68% 22.2 km/h SSE 1009.3 hPa 0 mm
06 mai 16:35 14.4°C 68% 16.4 km/h SSE 1009.3 hPa 0 mm
06 mai 16:34 14.5°C 67% 17.9 km/h SE 1009.2 hPa 0 mm
06 mai 16:33 14.4°C 68% 21.1 km/h SE 1009.1 hPa 0 mm
06 mai 16:32 14.5°C 67% 21.1 km/h SE 1009.2 hPa 0 mm
06 mai 16:31 14.5°C 67% 21.6 km/h SE 1009.2 hPa 0 mm
06 mai 16:30 14.5°C 66% 21.1 km/h S 1009.1 hPa 0 mm
06 mai 16:29 14.5°C 67% 25.3 km/h SE 1009.1 hPa 0 mm
06 mai 16:28 14.6°C 66% 22.2 km/h SSE 1009.1 hPa 0 mm
06 mai 16:27 14.6°C 67% 24.8 km/h S 1009.1 hPa 0 mm
06 mai 16:26 14.6°C 66% 21.1 km/h ESE 1009.1 hPa 0 mm
06 mai 16:25 14.5°C 66% 22.2 km/h SE 1009.1 hPa 0 mm
06 mai 16:24 14.4°C 66% 26.9 km/h SSE 1009.1 hPa 0 mm
06 mai 16:23 14.4°C 66% 25.3 km/h S 1009.1 hPa 0 mm
06 mai 16:22 14.2°C 67% 20.6 km/h SSO 1009.2 hPa 0 mm
06 mai 16:21 14.2°C 67% 24.3 km/h S 1009.2 hPa 0 mm
06 mai 16:20 14.2°C 67% 22.7 km/h SSE 1009.2 hPa 0 mm
06 mai 16:19 14.2°C 66% 20.6 km/h SSE 1009.2 hPa 0 mm
06 mai 16:18 14.2°C 66% 21.6 km/h SSE 1009.2 hPa 0 mm
06 mai 16:17 14.3°C 66% 24.8 km/h S 1009.2 hPa 0 mm
06 mai 16:16 14.3°C 66% 22.2 km/h SE 1009.3 hPa 0 mm
06 mai 16:15 14.3°C 66% 19.5 km/h SE 1009.3 hPa 0 mm
06 mai 16:14 14.3°C 66% 26.4 km/h S 1009.3 hPa 0 mm
06 mai 16:13 14.3°C 66% 17.4 km/h SSE 1009.3 hPa 0 mm
06 mai 16:12 14.2°C 66% 16.9 km/h SSE 1009.3 hPa 0 mm
06 mai 16:11 14.2°C 66% 20.6 km/h SSE 1009.4 hPa 0 mm
06 mai 16:10 14.2°C 66% 16.4 km/h SE 1009.4 hPa 0 mm
06 mai 16:09 14.2°C 66% 15.3 km/h SSE 1009.5 hPa 0 mm
06 mai 16:08 14.2°C 66% 22.2 km/h S 1009.5 hPa 0 mm
06 mai 16:07 14.3°C 65% 18.5 km/h SSE 1009.6 hPa 0 mm
06 mai 16:06 14.2°C 66% 22.7 km/h SSO 1009.5 hPa 0 mm
06 mai 16:05 14.2°C 65% 21.1 km/h SSO 1009.5 hPa 0 mm
06 mai 16:04 14.3°C 65% 20.6 km/h S 1009.5 hPa 0 mm
06 mai 16:03 14.2°C 66% 25.9 km/h SSO 1009.5 hPa 0 mm
06 mai 16:02 14.2°C 66% 17.9 km/h SSO 1009.5 hPa 0 mm
06 mai 16:01 14.2°C 66% 16.9 km/h SSE 1009.5 hPa 0 mm
06 mai 16:00 14.2°C 65% 17.9 km/h SSO 1009.5 hPa 0 mm
06 mai 15:59 14.2°C 66% 20.6 km/h S 1009.5 hPa 0 mm
06 mai 15:58 14.2°C 65% 18.5 km/h SSE 1009.5 hPa 0 mm
06 mai 15:57 14.1°C 66% 17.4 km/h SSE 1009.5 hPa 0 mm
06 mai 15:56 14.1°C 66% 17.4 km/h SSO 1009.6 hPa 0 mm
06 mai 15:55 14.1°C 66% 21.6 km/h S 1009.5 hPa 0 mm
06 mai 15:54 14.1°C 66% 21.1 km/h SSE 1009.5 hPa 0 mm
06 mai 15:53 14.0°C 67% 19.0 km/h S 1009.5 hPa 0 mm
06 mai 15:52 14.0°C 66% 13.7 km/h S 1009.6 hPa 0 mm
06 mai 15:51 14.0°C 66% 19.5 km/h S 1009.6 hPa 0 mm
06 mai 15:50 14.1°C 66% 16.9 km/h SSO 1009.5 hPa 0 mm
06 mai 15:49 14.0°C 65% 20.6 km/h S 1009.5 hPa 0 mm
06 mai 15:48 14.0°C 66% 23.2 km/h SSO 1009.5 hPa 0 mm
06 mai 15:47 14.0°C 65% 23.8 km/h S 1009.6 hPa 0.14 mm
06 mai 15:46 13.9°C 66% 30.1 km/h S 1009.6 hPa 0 mm
06 mai 15:45 13.9°C 66% 24.3 km/h SO 1009.6 hPa 0 mm
06 mai 15:44 13.9°C 66% 18.5 km/h S 1009.6 hPa 0 mm
06 mai 15:43 13.9°C 66% 22.7 km/h SSE 1009.6 hPa 0 mm
06 mai 15:42 13.9°C 66% 25.9 km/h SE 1009.6 hPa 0 mm
06 mai 15:41 13.8°C 67% 20.6 km/h S 1009.6 hPa 0 mm
06 mai 15:40 13.8°C 67% 19.0 km/h SSO 1009.6 hPa 0 mm
06 mai 15:39 13.7°C 67% 17.9 km/h S 1009.5 hPa 0 mm
06 mai 15:38 13.7°C 67% 20.1 km/h SSE 1009.5 hPa 0 mm
06 mai 15:37 13.7°C 67% 18.5 km/h S 1009.6 hPa 0 mm
06 mai 15:36 13.7°C 67% 21.1 km/h SO 1009.6 hPa 0 mm
06 mai 15:35 13.7°C 67% 21.6 km/h SSO 1009.6 hPa 0 mm
06 mai 15:34 13.7°C 66% 23.8 km/h SSE 1009.6 hPa 0 mm
06 mai 15:33 13.6°C 67% 26.9 km/h S 1009.5 hPa 0 mm
06 mai 15:32 13.6°C 67% 17.9 km/h SSE 1009.6 hPa 0 mm
06 mai 15:31 13.7°C 67% 21.1 km/h SE 1009.6 hPa 0 mm
06 mai 15:30 13.8°C 66% 20.6 km/h S 1009.6 hPa 0 mm
06 mai 15:29 13.8°C 66% 26.9 km/h S 1009.6 hPa 0 mm
06 mai 15:28 13.8°C 66% 22.7 km/h SE 1009.7 hPa 0 mm
06 mai 15:27 13.9°C 65% 23.8 km/h SSO 1009.7 hPa 0 mm
06 mai 15:26 13.9°C 65% 28.0 km/h SSO 1009.7 hPa 0 mm
06 mai 15:25 14.0°C 64% 21.6 km/h S 1009.7 hPa 0 mm
06 mai 15:24 14.0°C 64% 32.7 km/h SSE 1009.7 hPa 0 mm
06 mai 15:23 14.0°C 64% 23.2 km/h S 1009.6 hPa 0 mm
06 mai 15:22 13.9°C 64% 31.7 km/h SSO 1009.6 hPa 0 mm
06 mai 15:21 13.9°C 65% 22.2 km/h S 1009.6 hPa 0 mm
06 mai 15:20 13.8°C 65% 26.4 km/h SSO 1009.5 hPa 0 mm
06 mai 15:19 13.8°C 64% 28.0 km/h SSE 1009.6 hPa 0 mm
06 mai 15:18 13.7°C 65% 21.1 km/h SSE 1009.5 hPa 0 mm
06 mai 15:17 13.7°C 64% 25.3 km/h S 1009.6 hPa 0 mm
06 mai 15:16 13.6°C 65% 29.0 km/h S 1009.5 hPa 0 mm
06 mai 15:15 13.6°C 65% 24.8 km/h SSE 1009.5 hPa 0 mm
06 mai 15:14 13.5°C 65% 28.5 km/h S 1009.5 hPa 0 mm
06 mai 15:13 13.6°C 65% 24.8 km/h SSO 1009.5 hPa 0 mm
06 mai 15:12 13.4°C 66% 35.4 km/h S 1009.5 hPa 0 mm
06 mai 15:11 13.5°C 65% 20.1 km/h SE 1009.5 hPa 0 mm
06 mai 15:10 13.5°C 65% 29.6 km/h S 1009.5 hPa 0 mm
06 mai 15:09 13.6°C 65% 22.2 km/h S 1009.6 hPa 0 mm
06 mai 15:08 13.7°C 63% 20.1 km/h S 1009.5 hPa 0 mm
06 mai 15:07 13.7°C 63% 20.1 km/h SSO 1009.6 hPa 0 mm
06 mai 15:06 13.9°C 62% 25.9 km/h SSO 1009.6 hPa 0 mm
06 mai 15:05 14.0°C 62% 30.1 km/h SSE 1009.5 hPa 0 mm
06 mai 15:04 14.0°C 61% 29.0 km/h S 1009.5 hPa 0 mm
06 mai 15:03 14.0°C 61% 29.6 km/h SSO 1009.5 hPa 0 mm
06 mai 15:02 14.0°C 61% 22.2 km/h SE 1009.5 hPa 0 mm
06 mai 15:01 14.0°C 61% 27.4 km/h SSE 1009.5 hPa 0 mm
06 mai 15:00 14.0°C 61% 28.0 km/h SSE 1009.4 hPa 0 mm
06 mai 14:59 13.9°C 62% 26.4 km/h SSE 1009.5 hPa 0 mm
06 mai 14:58 13.9°C 61% 28.0 km/h SE 1009.5 hPa 0 mm
06 mai 14:57 13.9°C 62% 24.3 km/h SSO 1009.5 hPa 0 mm
06 mai 14:56 13.9°C 62% 19.5 km/h SSE 1009.5 hPa 0 mm
06 mai 14:55 13.9°C 61% 22.7 km/h S 1009.5 hPa 0 mm
06 mai 14:54 13.8°C 62% 19.5 km/h SSE 1009.5 hPa 0 mm
06 mai 14:53 13.8°C 62% 21.6 km/h S 1009.4 hPa 0 mm
06 mai 14:52 13.8°C 63% 22.2 km/h S 1009.5 hPa 0 mm
06 mai 14:51 13.8°C 62% 19.0 km/h SSO 1009.5 hPa 0 mm
06 mai 14:50 13.8°C 61% 32.2 km/h SSO 1009.4 hPa 0 mm
06 mai 14:49 13.8°C 61% 29.0 km/h S 1009.5 hPa 0 mm
06 mai 14:48 13.8°C 62% 26.4 km/h SSE 1009.4 hPa 0 mm
06 mai 14:47 13.8°C 61% 28.0 km/h SE 1009.4 hPa 0 mm
06 mai 14:46 13.9°C 61% 26.4 km/h S 1009.3 hPa 0 mm
06 mai 14:45 13.9°C 60% 22.7 km/h S 1009.4 hPa 0 mm
06 mai 14:44 14.0°C 60% 24.3 km/h SE 1009.3 hPa 0 mm
06 mai 14:43 14.0°C 60% 24.8 km/h SE 1009.3 hPa 0 mm
06 mai 14:42 14.0°C 60% 33.8 km/h SSE 1009.3 hPa 0 mm
06 mai 14:41 14.0°C 59% 29.0 km/h SSE 1009.3 hPa 0 mm
06 mai 14:40 14.0°C 60% 39.6 km/h S 1009.3 hPa 0 mm
06 mai 14:39 14.0°C 60% 23.8 km/h S 1009.3 hPa 0 mm
06 mai 14:38 13.9°C 60% 33.2 km/h S 1009.4 hPa 0 mm
06 mai 14:37 13.9°C 60% 35.9 km/h S 1009.3 hPa 0 mm
06 mai 14:36 14.0°C 60% 23.2 km/h SSE 1009.3 hPa 0 mm
06 mai 14:35 14.0°C 60% 26.9 km/h SSO 1009.4 hPa 0 mm
06 mai 14:34 13.9°C 60% 26.4 km/h SSO 1009.4 hPa 0 mm
06 mai 14:33 13.9°C 60% 30.1 km/h SSE 1009.4 hPa 0 mm
06 mai 14:32 13.9°C 60% 25.3 km/h S 1009.4 hPa 0 mm
06 mai 14:31 13.9°C 60% 23.2 km/h SSE 1009.3 hPa 0 mm
06 mai 14:30 13.9°C 61% 24.3 km/h S 1009.3 hPa 0 mm
06 mai 14:29 13.9°C 60% 27.4 km/h SE 1009.2 hPa 0 mm
06 mai 14:28 13.9°C 60% 27.4 km/h SSE 1009.2 hPa 0 mm
06 mai 14:27 13.9°C 61% 22.7 km/h SE 1009.3 hPa 0 mm
06 mai 14:26 13.9°C 60% 26.9 km/h S 1009.3 hPa 0 mm
06 mai 14:25 13.9°C 61% 26.4 km/h SSO 1009.3 hPa 0 mm
06 mai 14:24 13.9°C 60% 28.0 km/h S 1009.2 hPa 0 mm
06 mai 14:23 13.9°C 61% 32.2 km/h SSE 1009.3 hPa 0 mm
06 mai 14:22 13.9°C 61% 24.8 km/h S 1009.3 hPa 0 mm
06 mai 14:21 13.8°C 61% 20.1 km/h S 1009.4 hPa 0 mm
06 mai 14:20 13.9°C 61% 24.8 km/h SSE 1009.3 hPa 0 mm
06 mai 14:19 13.8°C 61% 21.1 km/h SSE 1009.3 hPa 0 mm
06 mai 14:18 13.8°C 61% 21.6 km/h S 1009.3 hPa 0 mm
06 mai 14:17 13.8°C 61% 25.3 km/h SSE 1009.3 hPa 0 mm
06 mai 14:16 13.8°C 61% 22.2 km/h S 1009.3 hPa 0 mm
06 mai 14:15 13.7°C 62% 19.5 km/h SSE 1009.4 hPa 0 mm
06 mai 14:14 13.8°C 61% 19.5 km/h SSE 1009.4 hPa 0 mm
06 mai 14:13 13.8°C 61% 37.0 km/h SSE 1009.4 hPa 0 mm
06 mai 14:12 13.7°C 62% 23.2 km/h SSE 1009.5 hPa 0 mm
06 mai 14:11 13.7°C 61% 30.1 km/h SSE 1009.5 hPa 0 mm
06 mai 14:10 13.7°C 61% 34.8 km/h S 1009.3 hPa 0 mm
06 mai 14:09 13.7°C 62% 39.1 km/h SSO 1009.4 hPa 0 mm
06 mai 14:08 13.7°C 62% 27.4 km/h S 1009.4 hPa 0 mm
06 mai 14:07 13.7°C 63% 20.1 km/h SSE 1009.4 hPa 0 mm
06 mai 14:06 13.7°C 63% 18.5 km/h S 1009.4 hPa 0 mm
06 mai 14:05 13.7°C 62% 21.6 km/h SSE 1009.4 hPa 0 mm
06 mai 14:04 13.7°C 62% 22.7 km/h SSO 1009.4 hPa 0 mm
06 mai 14:03 13.6°C 63% 31.1 km/h SSE 1009.4 hPa 0 mm
06 mai 14:02 13.6°C 63% 30.1 km/h S 1009.4 hPa 0 mm
06 mai 14:01 13.6°C 63% 24.3 km/h SSE 1009.4 hPa 0 mm
06 mai 14:00 13.6°C 63% 21.1 km/h SSO 1009.5 hPa 0 mm
06 mai 13:59 13.6°C 63% 31.1 km/h S 1009.5 hPa 0 mm
06 mai 13:58 13.5°C 63% 23.8 km/h SSO 1009.6 hPa 0 mm
06 mai 13:57 13.5°C 63% 24.8 km/h SE 1009.6 hPa 0 mm
06 mai 13:56 13.5°C 63% 22.7 km/h S 1009.7 hPa 0 mm
06 mai 13:55 13.5°C 63% 21.6 km/h SE 1009.6 hPa 0 mm
06 mai 13:54 13.6°C 62% 25.9 km/h SE 1009.6 hPa 0 mm
06 mai 13:53 13.6°C 62% 32.7 km/h S 1009.6 hPa 0 mm
06 mai 13:52 13.6°C 63% 23.8 km/h ESE 1009.6 hPa 0 mm
06 mai 13:51 13.6°C 62% 25.9 km/h SSE 1009.5 hPa 0 mm
06 mai 13:50 13.6°C 62% 26.4 km/h S 1009.6 hPa 0 mm
06 mai 13:49 13.6°C 63% 31.7 km/h SSO 1009.6 hPa 0 mm
06 mai 13:48 13.6°C 63% 31.7 km/h SE 1009.6 hPa 0 mm
06 mai 13:47 13.7°C 63% 26.4 km/h S 1009.6 hPa 0 mm
06 mai 13:46 13.7°C 62% 37.0 km/h S 1009.5 hPa 0 mm
06 mai 13:45 13.8°C 62% 23.8 km/h SSE 1009.4 hPa 0 mm
06 mai 13:44 13.8°C 62% 30.6 km/h SO 1009.4 hPa 0 mm
06 mai 13:43 13.8°C 62% 26.9 km/h S 1009.5 hPa 0 mm
06 mai 13:42 13.8°C 62% 24.3 km/h SSO 1009.5 hPa 0 mm
06 mai 13:41 13.9°C 62% 27.4 km/h SSE 1009.4 hPa 0 mm
06 mai 13:40 13.9°C 62% 24.8 km/h SE 1009.4 hPa 0 mm
06 mai 13:39 13.9°C 62% 27.4 km/h S 1009.4 hPa 0 mm
06 mai 13:38 13.9°C 62% 23.2 km/h SE 1009.4 hPa 0 mm
06 mai 13:37 13.9°C 62% 28.0 km/h SSE 1009.4 hPa 0 mm
06 mai 13:36 14.0°C 63% 22.2 km/h S 1009.5 hPa 0 mm
06 mai 13:35 13.9°C 62% 25.3 km/h S 1009.5 hPa 0 mm
06 mai 13:34 13.9°C 62% 34.8 km/h SSE 1009.4 hPa 0 mm
06 mai 13:33 13.8°C 61% 30.1 km/h S 1009.4 hPa 0 mm
06 mai 13:32 13.8°C 61% 33.2 km/h S 1009.4 hPa 0 mm
06 mai 13:31 13.8°C 62% 26.4 km/h ESE 1009.4 hPa 0 mm
06 mai 13:30 13.7°C 62% 25.9 km/h SSE 1009.5 hPa 0 mm
06 mai 13:29 13.7°C 62% 30.6 km/h SSE 1009.6 hPa 0 mm
06 mai 13:28 13.7°C 62% 25.3 km/h S 1009.6 hPa 0 mm
06 mai 13:27 13.7°C 62% 29.6 km/h S 1009.6 hPa 0 mm
06 mai 13:26 13.7°C 62% 25.3 km/h SSO 1009.6 hPa 0 mm
06 mai 13:25 13.7°C 62% 26.9 km/h SSE 1009.7 hPa 0 mm
06 mai 13:24 13.6°C 63% 27.4 km/h SE 1009.6 hPa 0 mm
06 mai 13:23 13.6°C 62% 30.6 km/h SSE 1009.8 hPa 0 mm
06 mai 13:22 13.6°C 62% 32.2 km/h SSO 1009.8 hPa 0 mm
06 mai 13:21 13.5°C 62% 24.8 km/h SSO 1009.8 hPa 0 mm
06 mai 13:20 13.6°C 63% 27.4 km/h S 1009.8 hPa 0 mm
06 mai 13:19 13.5°C 63% 22.2 km/h S 1009.8 hPa 0 mm
06 mai 13:18 13.5°C 63% 21.1 km/h SE 1009.8 hPa 0 mm
06 mai 13:17 13.5°C 63% 24.8 km/h S 1009.8 hPa 0 mm
06 mai 13:16 13.5°C 63% 17.9 km/h S 1009.8 hPa 0 mm
06 mai 13:15 13.4°C 63% 21.6 km/h SE 1009.8 hPa 0 mm
06 mai 13:14 13.4°C 63% 23.2 km/h SSO 1009.8 hPa 0 mm
06 mai 13:13 13.3°C 62% 30.1 km/h S 1009.8 hPa 0 mm
06 mai 13:12 13.3°C 63% 27.4 km/h SE 1009.9 hPa 0 mm
06 mai 13:11 13.2°C 63% 18.5 km/h S 1009.9 hPa 0 mm
06 mai 13:10 13.2°C 62% 24.8 km/h SSO 1009.8 hPa 0 mm
06 mai 13:09 13.2°C 63% 25.3 km/h SSE 1009.8 hPa 0 mm
06 mai 13:08 13.3°C 63% 24.8 km/h S 1009.8 hPa 0 mm
06 mai 13:07 13.3°C 63% 25.3 km/h SSE 1009.8 hPa 0 mm
06 mai 13:06 13.2°C 62% 30.6 km/h SSE 1009.8 hPa 0 mm
06 mai 13:05 13.3°C 62% 22.2 km/h SSE 1009.8 hPa 0 mm
06 mai 13:04 13.2°C 62% 19.5 km/h SSO 1009.9 hPa 0 mm
06 mai 13:03 13.2°C 62% 28.5 km/h S 1009.9 hPa 0 mm
06 mai 13:02 13.2°C 62% 25.3 km/h S 1009.9 hPa 0 mm
06 mai 13:01 13.1°C 61% 25.9 km/h SSE 1009.8 hPa 0 mm
06 mai 13:00 13.1°C 61% 28.0 km/h SSE 1009.8 hPa 0 mm
06 mai 12:59 13.1°C 61% 35.4 km/h SSE 1009.9 hPa 0 mm
06 mai 12:58 13.1°C 61% 31.1 km/h SSE 1009.8 hPa 0 mm
06 mai 12:57 13.1°C 61% 30.1 km/h S 1009.9 hPa 0 mm
06 mai 12:56 13.1°C 61% 35.4 km/h SSE 1009.8 hPa 0 mm
06 mai 12:55 13.1°C 60% 30.6 km/h SE 1009.9 hPa 0 mm
06 mai 12:54 13.1°C 61% 28.5 km/h SE 1009.9 hPa 0 mm
06 mai 12:53 13.1°C 61% 28.5 km/h S 1009.9 hPa 0 mm
06 mai 12:52 13.1°C 61% 33.2 km/h SSE 1010.0 hPa 0 mm
06 mai 12:51 13.0°C 60% 31.1 km/h S 1010.0 hPa 0 mm
06 mai 12:50 13.0°C 60% 31.1 km/h SSE 1010.0 hPa 0 mm
06 mai 12:49 13.0°C 60% 28.5 km/h SE 1010.0 hPa 0 mm
06 mai 12:48 13.0°C 60% 28.0 km/h SE 1010.1 hPa 0 mm
06 mai 12:47 13.0°C 60% 29.0 km/h S 1010.0 hPa 0 mm
06 mai 12:46 13.0°C 61% 30.6 km/h SSE 1010.0 hPa 0 mm
06 mai 12:45 13.0°C 60% 19.0 km/h ESE 1010.0 hPa 0 mm
06 mai 12:44 13.0°C 60% 22.2 km/h SSO 1010.0 hPa 0 mm
06 mai 12:43 13.0°C 60% 22.7 km/h SSE 1010.0 hPa 0 mm
06 mai 12:42 13.0°C 60% 30.6 km/h SE 1010.0 hPa 0 mm
06 mai 12:41 12.9°C 60% 28.0 km/h SSE 1010.0 hPa 0 mm
06 mai 12:40 12.9°C 59% 24.3 km/h S 1010.1 hPa 0 mm
06 mai 12:39 12.8°C 60% 28.5 km/h SSE 1010.1 hPa 0 mm
06 mai 12:38 12.7°C 60% 28.0 km/h SSE 1010.1 hPa 0 mm
06 mai 12:37 12.7°C 60% 22.7 km/h SE 1010.1 hPa 0 mm
06 mai 12:36 12.7°C 60% 19.0 km/h SSE 1010.1 hPa 0 mm
06 mai 12:35 12.6°C 60% 25.3 km/h SSE 1010.1 hPa 0 mm
06 mai 12:34 12.5°C 60% 25.3 km/h SSE 1010.1 hPa 0 mm
06 mai 12:33 12.5°C 60% 23.8 km/h SE 1010.2 hPa 0 mm
06 mai 12:32 12.5°C 60% 29.0 km/h S 1010.2 hPa 0 mm
06 mai 12:31 12.5°C 60% 24.8 km/h SSE 1010.2 hPa 0 mm
06 mai 12:30 12.5°C 60% 25.9 km/h S 1010.2 hPa 0 mm
06 mai 12:29 12.5°C 60% 19.0 km/h SSO 1010.2 hPa 0 mm
06 mai 12:28 12.5°C 60% 28.0 km/h SSE 1010.2 hPa 0 mm
06 mai 12:27 12.5°C 60% 26.9 km/h SSE 1010.2 hPa 0 mm
06 mai 12:26 12.6°C 59% 28.0 km/h S 1010.2 hPa 0 mm
06 mai 12:25 12.5°C 60% 24.8 km/h SSE 1010.3 hPa 0 mm
06 mai 12:24 12.6°C 60% 23.2 km/h SSE 1010.2 hPa 0 mm
06 mai 12:23 12.5°C 59% 25.9 km/h S 1010.2 hPa 0 mm
06 mai 12:22 12.6°C 59% 24.8 km/h S 1010.2 hPa 0 mm
06 mai 12:21 12.6°C 60% 23.8 km/h S 1010.2 hPa 0 mm
06 mai 12:20 12.5°C 60% 21.1 km/h SE 1010.1 hPa 0 mm
06 mai 12:19 12.5°C 60% 26.4 km/h SE 1010.1 hPa 0 mm
06 mai 12:18 12.5°C 60% 22.7 km/h SE 1010.1 hPa 0 mm
06 mai 12:17 12.5°C 60% 20.6 km/h SE 1010.2 hPa 0 mm
06 mai 12:16 12.5°C 60% 20.6 km/h SSE 1010.2 hPa 0 mm
06 mai 12:15 12.4°C 59% 20.6 km/h S 1010.2 hPa 0 mm
06 mai 12:14 12.4°C 60% 22.7 km/h S 1010.2 hPa 0 mm
06 mai 12:13 12.4°C 60% 22.2 km/h S 1010.2 hPa 0 mm
06 mai 12:12 12.4°C 59% 30.1 km/h SE 1010.2 hPa 0 mm
06 mai 12:11 12.4°C 59% 26.4 km/h SE 1010.3 hPa 0 mm
06 mai 12:10 12.4°C 59% 22.2 km/h SE 1010.3 hPa 0 mm
06 mai 12:09 12.4°C 60% 25.3 km/h S 1010.3 hPa 0 mm
06 mai 12:08 12.5°C 59% 20.6 km/h SSE 1010.4 hPa 0 mm
06 mai 12:07 12.4°C 59% 25.3 km/h S 1010.4 hPa 0 mm
06 mai 12:06 12.4°C 59% 21.1 km/h S 1010.4 hPa 0 mm
06 mai 12:05 12.4°C 60% 25.9 km/h SSE 1010.4 hPa 0 mm
06 mai 12:04 12.4°C 59% 25.3 km/h SE 1010.3 hPa 0 mm
06 mai 12:03 12.4°C 59% 16.4 km/h S 1010.3 hPa 0 mm
06 mai 12:02 12.4°C 59% 22.7 km/h SSE 1010.3 hPa 0 mm
06 mai 12:01 12.4°C 58% 28.5 km/h SSO 1010.3 hPa 0 mm
06 mai 12:00 12.4°C 58% 30.1 km/h SSE 1010.4 hPa 0 mm
06 mai 11:59 12.4°C 59% 24.3 km/h S 1010.4 hPa 0 mm
06 mai 11:58 12.4°C 58% 28.5 km/h SSE 1010.3 hPa 0 mm
06 mai 11:57 12.4°C 59% 22.7 km/h SE 1010.3 hPa 0 mm
06 mai 11:56 12.4°C 59% 30.6 km/h SSE 1010.3 hPa 0 mm
06 mai 11:55 12.4°C 59% 24.3 km/h SE 1010.4 hPa 0 mm
06 mai 11:54 12.4°C 60% 29.0 km/h S 1010.4 hPa 0 mm
06 mai 11:53 12.3°C 60% 17.4 km/h SE 1010.4 hPa 0 mm
06 mai 11:52 12.3°C 59% 25.3 km/h SE 1010.5 hPa 0 mm
06 mai 11:51 12.2°C 59% 29.6 km/h S 1010.5 hPa 0 mm
06 mai 11:50 12.2°C 59% 25.9 km/h SSE 1010.5 hPa 0 mm
06 mai 11:49 12.1°C 60% 26.9 km/h S 1010.6 hPa 0 mm
06 mai 11:48 12.1°C 60% 16.9 km/h S 1010.6 hPa 0 mm
06 mai 11:47 12.0°C 60% 24.8 km/h S 1010.6 hPa 0 mm
06 mai 11:46 12.1°C 59% 27.4 km/h S 1010.5 hPa 0 mm
06 mai 11:45 12.1°C 59% 24.3 km/h S 1010.5 hPa 0 mm
06 mai 11:44 12.0°C 59% 27.4 km/h SSE 1010.5 hPa 0 mm
06 mai 11:43 12.1°C 59% 29.0 km/h SSE 1010.5 hPa 0 mm
06 mai 11:42 12.1°C 59% 22.7 km/h SSO 1010.4 hPa 0 mm
06 mai 11:41 12.0°C 59% 25.3 km/h SE 1010.3 hPa 0 mm
06 mai 11:40 12.0°C 60% 23.8 km/h S 1010.3 hPa 0 mm
06 mai 11:39 12.0°C 59% 15.8 km/h SE 1010.4 hPa 0 mm
06 mai 11:38 12.0°C 60% 20.6 km/h SSO 1010.4 hPa 0 mm
06 mai 11:37 11.9°C 60% 26.9 km/h S 1010.5 hPa 0 mm
06 mai 11:36 12.0°C 60% 20.6 km/h SSE 1010.5 hPa 0 mm
06 mai 11:35 12.0°C 59% 22.2 km/h SE 1010.5 hPa 0 mm
06 mai 11:34 12.0°C 60% 25.9 km/h SSE 1010.6 hPa 0 mm
06 mai 11:33 11.9°C 60% 22.2 km/h SE 1010.6 hPa 0 mm
06 mai 11:32 11.9°C 60% 24.3 km/h SE 1010.6 hPa 0 mm
06 mai 11:31 11.9°C 60% 24.3 km/h SSE 1010.6 hPa 0 mm
06 mai 11:30 11.9°C 60% 24.8 km/h SE 1010.7 hPa 0 mm
06 mai 11:29 11.9°C 61% 15.8 km/h S 1010.7 hPa 0 mm
06 mai 11:28 11.9°C 60% 22.7 km/h S 1010.7 hPa 0 mm
06 mai 11:27 11.9°C 61% 21.6 km/h S 1010.7 hPa 0 mm
06 mai 11:26 11.9°C 60% 20.6 km/h SSE 1010.7 hPa 0 mm
06 mai 11:25 11.8°C 61% 22.2 km/h SSE 1010.7 hPa 0 mm
06 mai 11:24 11.8°C 60% 20.1 km/h SSO 1010.7 hPa 0 mm
06 mai 11:23 11.8°C 61% 24.3 km/h SSE 1010.7 hPa 0 mm
06 mai 11:22 11.8°C 60% 20.6 km/h SSE 1010.6 hPa 0 mm
06 mai 11:21 11.8°C 60% 25.3 km/h S 1010.5 hPa 0 mm
06 mai 11:20 11.7°C 61% 22.2 km/h SSE 1010.4 hPa 0 mm
06 mai 11:19 11.7°C 61% 21.6 km/h SE 1010.4 hPa 0 mm
06 mai 11:18 11.7°C 62% 22.7 km/h SSE 1010.6 hPa 0 mm
06 mai 11:17 11.8°C 61% 20.1 km/h SSE 1010.7 hPa 0 mm
06 mai 11:16 11.7°C 61% 24.3 km/h S 1010.8 hPa 0 mm
06 mai 11:15 11.7°C 61% 21.6 km/h S 1010.7 hPa 0 mm
06 mai 11:14 11.7°C 61% 19.0 km/h SSE 1010.7 hPa 0 mm
06 mai 11:13 11.7°C 61% 21.6 km/h SSO 1010.7 hPa 0 mm
06 mai 11:12 11.7°C 61% 20.6 km/h SE 1010.6 hPa 0 mm
06 mai 11:11 11.7°C 61% 22.2 km/h SE 1010.6 hPa 0 mm
06 mai 11:10 11.7°C 62% 24.8 km/h S 1010.6 hPa 0 mm
06 mai 11:09 11.7°C 62% 17.9 km/h SE 1010.5 hPa 0 mm
06 mai 11:08 11.7°C 61% 22.2 km/h SSE 1010.5 hPa 0 mm
06 mai 11:07 11.7°C 61% 26.4 km/h SE 1010.5 hPa 0 mm
06 mai 11:06 11.7°C 62% 20.6 km/h SSE 1010.5 hPa 0 mm
06 mai 11:05 11.7°C 62% 23.8 km/h S 1010.6 hPa 0 mm
06 mai 11:04 11.7°C 62% 21.6 km/h SSE 1010.5 hPa 0 mm
06 mai 11:03 11.7°C 61% 34.3 km/h SSE 1010.4 hPa 0 mm
06 mai 11:02 11.5°C 62% 30.6 km/h SE 1010.4 hPa 0 mm
06 mai 11:01 11.4°C 63% 24.8 km/h SSE 1010.4 hPa 0 mm
06 mai 11:00 11.4°C 63% 19.0 km/h S 1010.5 hPa 0 mm
06 mai 10:59 11.3°C 62% 21.6 km/h S 1010.5 hPa 0 mm
06 mai 10:58 11.3°C 63% 24.8 km/h ESE 1010.5 hPa 0 mm
06 mai 10:57 11.3°C 62% 20.1 km/h SSE 1010.5 hPa 0 mm
06 mai 10:56 11.2°C 63% 20.1 km/h S 1010.5 hPa 0 mm
06 mai 10:55 11.2°C 63% 20.1 km/h SSO 1010.5 hPa 0 mm
06 mai 10:54 11.2°C 63% 24.8 km/h SE 1010.5 hPa 0 mm
06 mai 10:53 11.1°C 63% 23.2 km/h SSE 1010.6 hPa 0 mm
06 mai 10:52 11.1°C 63% 21.1 km/h SSE 1010.6 hPa 0 mm
06 mai 10:51 11.0°C 64% 20.6 km/h SSO 1010.6 hPa 0 mm
06 mai 10:50 11.0°C 63% 19.5 km/h SE 1010.6 hPa 0 mm
06 mai 10:49 11.0°C 63% 17.4 km/h S 1010.6 hPa 0 mm
06 mai 10:48 11.0°C 63% 17.9 km/h SE 1010.7 hPa 0 mm
06 mai 10:47 11.0°C 63% 20.1 km/h S 1010.7 hPa 0 mm
06 mai 10:46 11.0°C 63% 16.9 km/h SE 1010.7 hPa 0 mm
06 mai 10:45 11.0°C 63% 21.1 km/h S 1010.7 hPa 0 mm
06 mai 10:44 10.9°C 63% 22.2 km/h S 1010.7 hPa 0 mm
06 mai 10:43 10.9°C 63% 16.9 km/h SE 1010.7 hPa 0 mm
06 mai 10:42 10.9°C 64% 15.8 km/h SE 1010.7 hPa 0 mm
06 mai 10:41 10.8°C 63% 17.4 km/h SE 1010.7 hPa 0 mm
06 mai 10:40 10.8°C 63% 23.2 km/h S 1010.8 hPa 0 mm
06 mai 10:39 10.9°C 63% 19.5 km/h SSE 1010.8 hPa 0 mm
06 mai 10:38 10.8°C 63% 23.8 km/h SSE 1010.7 hPa 0 mm
06 mai 10:37 10.8°C 63% 24.8 km/h S 1010.7 hPa 0 mm
06 mai 10:36 10.8°C 63% 17.4 km/h SSO 1010.7 hPa 0 mm
06 mai 10:35 10.8°C 63% 23.2 km/h S 1010.8 hPa 0 mm
06 mai 10:34 10.8°C 63% 21.1 km/h SSE 1010.7 hPa 0 mm
06 mai 10:33 10.8°C 63% 18.5 km/h SSE 1010.8 hPa 0 mm
06 mai 10:32 10.8°C 63% 21.1 km/h SE 1010.7 hPa 0 mm
06 mai 10:31 10.7°C 63% 19.0 km/h SSE 1010.7 hPa 0 mm
06 mai 10:30 10.7°C 63% 24.8 km/h SSO 1010.7 hPa 0 mm
06 mai 10:29 10.7°C 64% 20.1 km/h SSE 1010.7 hPa 0 mm
06 mai 10:28 10.6°C 64% 26.4 km/h S 1010.7 hPa 0 mm
06 mai 10:27 10.5°C 64% 19.0 km/h SE 1010.7 hPa 0 mm
06 mai 10:26 10.5°C 64% 20.6 km/h SSE 1010.6 hPa 0 mm
06 mai 10:25 10.5°C 64% 15.8 km/h S 1010.8 hPa 0 mm
06 mai 10:24